Tous vos exploits sur  Logo Planète Marathon le site 100% Marathon

Marathon de New-York (USA)              Donnez votre avis sur l'édition 1988

Le 06/11/1988 - Edition 1988 - Résultats partiels...                                                       

Clmt. Temps Nom Prénom Club Organisme Catégorie
1 2:08:20 Jones Steve (wal) M33 (+)
2 2:11:41 Bettiol Salvatore (ITA) M26 (+)
3 2:13:18 Treacy John (IRL) M31 (+)
4 2:13:50 Shahanga Gidamis (USA) M27 (+)
5 2:14:00 Montero Juan Carlos (ESP) M27 (+)
6 2:14:06 Tabak Nikolai Rus) M32 (+)
7 2:14:14 Kudoh Kazuyoshi (JPN) M27 (+)
8 2:14:21 Nenow Marc (USA) M30 (+)
9 2:14:27 Nedi Derege (ETH) M33 (+)
10 2:14:34 Chaguiev Rustam (RUS) M25 (+)
11 2:14:38 Levisse Pierre (FRA) M36 (+)
26 2:21:30 Leghnjder Mustapha (FRA) M28 (+)
56 2:27:54 Moftaqir Mustapha (FRA) M34 (+)
59 2:28:07 Waitz Grete (NOR) F35 (+)
64 2:28:49 Robelin Daniel (FRA) M40 (+)
78 2:31:26 Fogli Laura (ITA) F29 (+)
79 2:31:27 Nicault Philippe (FRA) M26 (+)
86 2:32:10 Marechet Jacques (FRA) M32 (+)
89 2:32:40 Creach Paul (FRA) M31 (+)
90 2:32:40 Samuelson Joan (USA) F31 (+)
97 2:34:32 Dubois Remi (FRA) M32 (+)
101 2:34:54 Colin Olivier (FRA) M25 (+)
114 2:36:24 Armaud Aime (FRA) M27 (+)
117 2:36:33 Collomb Philippe (FRA) M24 (+)
118 2:36:40 Szabo Karolina (HUN) F26 (+)
119 2:36:43 Gaucher Henri (FRA) M35 (+)
121 2:37:00 Soulier Jean (FRA) M34 (+)
127 2:37:35 Pressler Kerstin (GER) All Ouest F26 (+)
132 2:37:59 Chasova Alevtina (RUS) F27 (+)
133 2:38:00 Tissot Patrick (FRA) M31 (+)
137 2:38:17 Gheraselgoum Abdel (FRA) M26 (+)
139 2:38:20 Nabialek Pascal (FRA) M28 (+)
140 2:38:20 Billet Georges (FRA) M41 (+)
144 2:38:26 Fayolle Bernard (FRA) M28 (+)
153 2:39:30 Huguet William (FRA) M38 (+)
154 2:39:32 Striuli Graziella (ITA) F39 (+)
155 2:39:38 Baudry Marc (FRA) M39 (+)
158 2:39:43 Wutelin Claude (FRA) M27 (+)
167 2:40:24 Rivoire Roger (FRA) M37 (+)
168 2:40:26 Abadie Patrick (FRA) M34 (+)
169 2:40:26 Stewart Hazel (USA) F34 (+)
176 2:40:41 Moe Bente (USA) F27 (+)
178 2:40:50 Preignan Jean-claude (FRA) M34 (+)
184 2:41:07 Lorentzen Tove (DEN) F28 (+)
185 2:41:09 Parra Rodrigo Jean-charles (FRA) M37 (+)
189 2:41:24 Adame Mota Paulino (FRA) M32 (+)
195 2:41:33 Creuzet Henri (FRA) M40 (+)
197 2:41:35 Petit Gerard (FRA) M39 (+)
207 2:42:09 Lemoult Etienne (FRA) M41 (+)
232 2:43:09 Beaudet Eric (FRA) M27 (+)
245 2:43:29 Auzou Lionel (FRA) M29 (+)
246 2:43:30 Sicard Jean-marc (FRA) M34 (+)
257 2:44:07 Galvany Jef (FRA) M40 (+)
258 2:44:09 Fontaine Patrick (FRA) M31 (+)
260 2:44:16 Bourrel Alain (FRA) M40 (+)
263 2:44:22 Omaly Didier (FRA) M30 (+)
279 2:45:05 Breteuil Stephane (FRA) M27 (+)
283 2:45:15 Poyet Alain (FRA) M34 (+)
290 2:45:33 Roux Michel (FRA) M27 (+)
301 2:46:14 Protat Jean (FRA) M44 (+)
310 2:46:31 Roussel Max (FRA) M38 (+)
319 2:46:53 Lacomme Patrick (FRA) M28 (+)
320 2:46:54 Defois Daniel (FRA) M39 (+)
321 2:46:57 Chauvin Patrice (FRA) M36 (+)
332 2:47:24 Boisne Lionel (FRA) M33 (+)
342 2:47:48 Allio Charles (FRA) M41 (+)
346 2:48:02 Lepesqueur Jean-marc (FRA) M28 (+)
358 2:48:38 Van Den Esch Patrice (FRA) M34 (+)
368 2:48:56 Bourrat Michel (FRA) M39 (+)
377 2:49:10 Conte Gilles (FRA) M33 (+)
378 2:49:11 Montaner Georges (FRA) M51 (+)
397 2:49:42 Gautrin Eric (FRA) M26 (+)
402 2:49:54 Marguet Claude (FRA) M31 (+)
412 2:50:12 Skopine Michel (FRA) M41 (+)
419 2:50:30 Reze Denis (FRA) M38 (+)
421 2:50:38 Delannoy Patrice (FRA) M37 (+)
426 2:50:44 Genty Bruno (FRA) M26 (+)
428 2:50:46 Meunier Richard (FRA) M39 (+)
431 2:50:51 Breard Jean Philippe (FRA) M25 (+)
441 2:51:21 Bastard Jean Pierre (FRA) M41 (+)
449 2:51:31 Leux Gerald (FRA) M28 (+)
459 2:51:39 Briot Jean Paul (FRA) M40 (+)
466 2:51:47 Piovanacci Daniel (FRA) M41 (+)
469 2:51:50 Louail Said (FRA) M25 (+)
483 2:52:14 Rodriguez Augustin (FRA) M36 (+)
489 2:52:23 Mercier Dominique (FRA) M26 (+)
492 2:52:28 Deschene Guy (FRA) M34 (+)
493 2:52:28 Legentil Michel (FRA) M36 (+)
502 2:52:37 Hofer Michel (FRA) M30 (+)
508 2:52:45 Ciercoles Bernard (FRA) M31 (+)
510 2:52:49 Sylvestre Joel (FRA) M35 (+)
514 2:52:55 Zanchi Almarique (FRA) M28 (+)
519 2:53:01 Blocquel Alain (FRA) M40 (+)
531 2:53:12 Soublin Philippe (FRA) M27 (+)
542 2:53:26 Dermigny Jean-paul (FRA) M42 (+)
543 2:53:28 Pettelot Jacky (FRA) M52 (+)
549 2:53:36 Roiseux Henri (FRA) M40 (+)
553 2:53:49 Collot Gilles (FRA) M27 (+)
559 2:53:55 Lerouge Marc (FRA) M26 (+)
560 2:54:02 Puillet Jean-paul (FRA) M30 (+)
562 2:54:05 Tartois Didier (FRA) M31 (+)
568 2:54:14 Blanc Philippe (FRA) M25 (+)
574 2:54:18 Claude Jean-noel (FRA) M35 (+)
577 2:54:20 Andreu Robert (FRA) M39 (+)
580 2:54:21 Guerin Christian (FRA) M32 (+)
592 2:54:37 Martinez Christian (FRA) M34 (+)
602 2:54:49 Delort Gerard (FRA) M41 (+)
605 2:54:53 Bizec Philippe (FRA) M32 (+)
607 2:54:57 Malaval Christian (FRA) M41 (+)
608 2:55:01 Martinez Claude (FRA) M37 (+)
618 2:55:13 Casse Christian (FRA) M37 (+)
621 2:55:16 Hubert Nomine (FRA) M36 (+)
645 2:55:43 Bueno Jean Luc (FRA) M29 (+)
647 2:55:45 Couturier Didier (FRA) M28 (+)
648 2:55:48 Picon Max (FRA) M52 (+)
667 2:56:19 Demaret James (FRA) M31 (+)
669 2:56:22 Andre Norbert (FRA) M29 (+)
674 2:56:28 Ridray Michel (FRA) M31 (+)
677 2:56:33 Cerron Michel (FRA) M36 (+)
680 2:56:39 Girard Jean-luc (FRA) M43 (+)
684 2:56:45 Seveno Patrick (FRA) M37 (+)
692 2:56:50 Brule Patrick (FRA) M36 (+)
694 2:56:51 Martin Olivier (FRA) M24 (+)
725 2:57:20 Friedman Georges (FRA) M50 (+)
728 2:57:22 Talvast Gerard (FRA) M35 (+)
756 2:57:52 Joussin Jean-louis (FRA) M33 (+)
757 2:57:52 Corneille Jean Marc (FRA) M30 (+)
761 2:57:57 Valin Bernard (FRA) M36 (+)
762 2:57:58 Moussay Bernard (FRA) M35 (+)
769 2:58:05 Georgelin Gerard (FRA) M25 (+)
771 2:58:07 Russell Ian (FRA) M36 (+)
780 2:58:13 Michel Paris (FRA) M25 (+)
795 2:58:25 Morel Pascal (FRA) M29 (+)
806 2:58:35 Bolo James (FRA) M45 (+)
807 2:58:35 Triboulet Joel (FRA) M39 (+)
808 2:58:37 Bonora Serge (FRA) M35 (+)
811 2:58:41 Heine Franck (FRA) M27 (+)
817 2:58:45 Leveque Nicole (FRA) F37 (+)
819 2:58:47 Charpentier Jean Louis (FRA) M51 (+)
821 2:58:52 Roussel Stephane (FRA) M30 (+)
846 2:59:13 Legoff François (FRA) M37 (+)
848 2:59:14 Lerouge Claude (FRA) M36 (+)
855 2:59:22 Suplisse Jean Marc (FRA) M29 (+)
863 2:59:29 Richard Henri (FRA) SEM/50 (+)
871 2:59:34 Lefilleul Louis (FRA) M35 (+)
872 2:59:37 Atienza Patrice (FRA) M27 (+)
875 2:59:43 Guilbert Charles (FRA) M40 (+)
876 2:59:43 Desmazieres Marc (FRA) M31 (+)
885 2:59:52 Renaudin Bernard (FRA) M59 (+)
886 2:59:52 Simon Philippe (FRA) M33 (+)
907 3:00:14 Constantin Bernard (FRA) M38 (+)
908 3:00:15 Valor Augustin (FRA) M28 (+)
909 3:00:16 Renaud Gerard (FRA) M37 (+)
915 3:00:20 Chapus Patrick (FRA) M34 (+)
918 3:00:22 Joire Jean-eric (FRA) M44 (+)
920 3:00:25 Gerbet Christian (FRA) M40 (+)
939 3:00:36 D'atria Augusto (FRA) M36 (+)
941 3:00:38 Lopresti Rosario (FRA) M26 (+)
943 3:00:40 Prevost Alain (FRA) M37 (+)
953 3:00:49 Marechet Anne (FRA) F28 (+)
955 3:00:53 Pezerat Gerard (FRA) M28 (+)
958 3:00:57 Clement Jean Paul (FRA) M36 (+)
964 3:01:12 Adoue Jean Louis (FRA) M42 (+)
969 3:01:19 Sainte Romane Marcel (FRA) M41 (+)
994 3:01:52 Audureau Yves (FRA) M38 (+)
998 3:01:54 Lefevre Jean (FRA) M43 (+)
1004 3:02:01 Bourcier Bernard (FRA) M39 (+)
1014 3:02:10 Gevrey Alain (FRA) M32 (+)
1015 3:02:11 Jeunot Claude (FRA) M33 (+)
1018 3:02:15 Braud Michel (FRA) M58 (+)
1019 3:02:16 Boulegue Bernard (FRA) M36 (+)
1023 3:02:23 Moreton Marc (FRA) M41 (+)
1035 3:02:41 Allo Gil (FRA) M37 (+)
1038 3:02:45 Lapp Freddy (FRA) M22 (+)
1043 3:02:48 Mordret Didier (FRA) M34 (+)
1052 3:02:55 Rochotte Christophe (FRA) M26 (+)
1055 3:02:57 Fitzgerald Michael (FRA) M35 (+)
1059 3:03:00 Roussey Jean-paul (FRA) M41 (+)
1067 3:03:11 Hirn Lino (FRA) M52 (+)
1069 3:03:14 Germain Claude (FRA) M35 (+)
1084 3:03:29 Proust Christian (FRA) M26 (+)
1096 3:03:41 Sonnet Eugene (FRA) M37 (+)
1101 3:03:47 Grillot Bruno (FRA) M18 (+)
1103 3:03:49 Ledamany Guy (FRA) M39 (+)
1108 3:03:54 Stumpf Nicolas (FRA) M25 (+)
1109 3:03:54 Vaslet Guy (FRA) M38 (+)
1117 3:03:59 Barbieux Olivier (FRA) M32 (+)
1125 3:04:06 Sole Andreu (FRA) M36 (+)
1128 3:04:09 Ara Olivier (FRA) M23 (+)
1148 3:04:30 Desvaux Elie (FRA) M40 (+)
1151 3:04:36 Laurier Jean-noel (FRA) M34 (+)
1152 3:04:36 Wieliczko Jean-paul (FRA) M34 (+)
1153 3:04:37 Creusot Hubert (FRA) M30 (+)
1156 3:04:40 Cure Roger (FRA) M50 (+)
1162 3:04:50 Schneider Frederic (FRA) M33 (+)
1175 3:04:59 Perrier Patrick (FRA) M38 (+)
1178 3:05:01 Berthuly Fernand (FRA) M45 (+)
1205 3:05:30 Carpentier Eric (FRA) M25 (+)
1213 3:05:40 Wulwik Arthur (FRA) M38 (+)
1220 3:05:53 Lacroix Alain (FRA) M27 (+)
1221 3:05:55 Vergnaud Jean-maurice (FRA) M29 (+)
1222 3:05:56 Marc Patrick (FRA) M28 (+)
1223 3:05:59 Manach Lionel (FRA) M34 (+)
1227 3:06:06 Thefioux Dominique (FRA) M33 (+)
1229 3:06:06 Loppin Jean Luc (FRA) M35 (+)
1231 3:06:07 Fabre Bernard (FRA) M33 (+)
1235 3:06:10 Lachartre Jean (FRA) M53 (+)
1241 3:06:16 Rudelli Jean-jacques (FRA) M40 (+)
1256 3:06:28 Cervantes Jean François (FRA) M28 (+)
1261 3:06:33 Fairier Yvon (FRA) M31 (+)
1262 3:06:33 Bihr Noel (FRA) M38 (+)
1267 3:06:36 Maurel Jean-françois (FRA) M40 (+)
1281 3:06:45 Hermand Yves (FRA) M33 (+)
1291 3:06:52 Leroy Claude (FRA) M38 (+)
1295 3:06:54 Lieutaud Jean-paul (FRA) M32 (+)
1296 3:06:55 Queau Fernand (FRA) M59 (+)
1302 3:07:01 Agredda Alphonse (FRA) M39 (+)
1303 3:07:02 Cortes Jean (FRA) M46 (+)
1311 3:07:13 Lecuyer Michel (FRA) M42 (+)
1321 3:07:18 Renoncet Bernard (FRA) M46 (+)
1328 3:07:29 Rigoir Olivier (FRA) M44 (+)
1333 3:07:35 Revenu Philippe (FRA) M42 (+)
1352 3:07:44 Wolff Daniel (FRA) M42 (+)
1355 3:07:48 Griffouliere Claude (FRA) M42 (+)
1357 3:07:49 Poussou Alain (FRA) M26 (+)
1366 3:07:54 Michelon Jean-françois (FRA) M39 (+)
1372 3:07:59 Mazille Joel (FRA) M34 (+)
1380 3:08:05 Rault Claude (FRA) M40 (+)
1388 3:08:13 Monfray Jean (FRA) M41 (+)
1392 3:08:16 Van De Velde Gregoire (FRA) M31 (+)
1404 3:08:24 Bourgeois Roland (FRA) M31 (+)
1411 3:08:28 Dumoux Jacques (FRA) M28 (+)
1422 3:08:33 Heine Raoul (FRA) M39 (+)
1434 3:08:41 Leroi Jean (FRA) M40 (+)
1435 3:08:41 Leroy Philippe (FRA) M32 (+)
1436 3:08:41 Sanguinet Rene (FRA) M37 (+)
1439 3:08:42 Bayle Jacky (FRA) M55 (+)
1444 3:08:46 Ramon Francisco (FRA) M31 (+)
1449 3:08:50 Commandre Roland (FRA) M37 (+)
1462 3:08:55 Oxenham Kim (FRA) M32 (+)
1465 3:08:57 Panaget Gerard (FRA) M35 (+)
1498 3:09:18 Zajac Pierre Louis (FRA) M35 (+)
1503 3:09:23 Piquer Michel (FRA) M36 (+)
1504 3:09:23 Croenne Patrick (FRA) M26 (+)
1508 3:09:28 Lethimonnier Ferdinand (FRA) M47 (+)
1526 3:09:38 Burtel Gilbert (FRA) M51 (+)
1530 3:09:42 Bansais Alain (FRA) M44 (+)
1532 3:09:46 Boutade Christian (FRA) M48 (+)
1539 3:09:49 Wanegue Jean-jose (FRA) M40 (+)
1540 3:09:49 Clement Jacky (FRA) M23 (+)
1543 3:09:50 Henri Jean-pierre (FRA) M35 (+)
1545 3:09:51 Gat Frederic (FRA) M31 (+)
1554 3:09:57 Cros Alain (FRA) M49 (+)
1556 3:09:59 Goujon Jean-paul (FRA) M45 (+)
1560 3:10:05 Desmartis Charles (FRA) M31 (+)
1571 3:10:10 Drouin Christiane (FRA) F36 (+)
1572 3:10:11 Royer Paul (FRA) M27 (+)
1574 3:10:12 Ferran Eric (FRA) M31 (+)
1599 3:10:23 Bach Michel (FRA) V1M/46 (+)
1601 3:10:26 Tourvieille Jean-paul (FRA) M36 (+)
1605 3:10:29 Hannecart Jean-benoit (FRA) M23 (+)
1609 3:10:33 Blandin Christian (FRA) M44 (+)
1614 3:10:37 Goasdoff Pierre (FRA) M34 (+)
1622 3:10:42 Serre Alain (FRA) M45 (+)
1623 3:10:42 Laroche Claude (FRA) M55 (+)
1627 3:10:45 Masselot Jean-louis (FRA) M33 (+)
1646 3:11:06 Carre Michel (FRA) M43 (+)
1653 3:11:13 Duval Denis (FRA) M36 (+)
1673 3:11:25 Tenot Didier (FRA) M44 (+)
1675 3:11:26 Hebert Bernard (FRA) M37 (+)
1704 3:11:41 Bertoli Claude (FRA) M53 (+)
1706 3:11:42 Colombier Guy (FRA) M35 (+)
1718 3:11:49 Geffroy Danielle (FRA) F43 (+)
1723 3:11:52 Peron Patrick (FRA) M46 (+)
1735 3:11:57 Menay Christian (FRA) M34 (+)
1738 3:11:58 Gillet Yves (FRA) M26 (+)
1739 3:11:58 Guegen Yvon (FRA) M27 (+)
1742 3:11:59 Carraz Michel (FRA) M32 (+)
1744 3:12:00 Dumesnil Jean-jacques (FRA) M37 (+)
1748 3:12:02 Touroude Joelle (FRA) F31 (+)
1765 3:12:10 Gewiss Christian (FRA) M36 (+)
1777 3:12:19 Perier Marc (FRA) M35 (+)
1779 3:12:20 Lansard Philippe (FRA) M26 (+)
1780 3:12:21 Comte Gilles (FRA) M23 (+)
1784 3:12:23 Rousseau Michel (FRA) M33 (+)
1786 3:12:24 Arbieu Ludovic (FRA) M35 (+)
1787 3:12:25 Muzard Lionel (FRA) M34 (+)
1797 3:12:31 Fayard Jean-philippe (FRA) M40 (+)
1829 3:12:47 Lucas Jean-pierre (FRA) M30 (+)
1832 3:12:50 Renee Guy (FRA) M41 (+)
1843 3:12:59 Saint-aubert Michel (FRA) M43 (+)
1859 3:13:07 Lagarde Gerard (FRA) M36 (+)
1860 3:13:07 Morin Eric (FRA) M25 (+)
1871 3:13:13 Berger Jean François (FRA) M37 (+)
1876 3:13:17 Lagabarre Philippe (FRA) M46 (+)
1880 3:13:21 Gayon Freddy (FRA) M44 (+)
1882 3:13:21 Lacoste Xavier (FRA) M38 (+)
1886 3:13:22 Saudo Patrice (FRA) M38 (+)
1887 3:13:22 Allio Gilbert (FRA) M44 (+)
1898 3:13:28 Geraud Jacques (FRA) M51 (+)
1900 3:13:29 Mouaze François (FRA) M42 (+)
1908 3:13:32 Blanchet Gilles (FRA) M46 (+)
1913 3:13:34 Prabel Frank (FRA) M28 (+)
1918 3:13:43 Tommasi Andre (FRA) M55 (+)
1931 3:13:55 Guerin Patrice (FRA) M36 (+)
1942 3:14:00 Deboussac Bertrand (FRA) M46 (+)
1950 3:14:08 Deschamps Antoine (FRA) M41 (+)
1955 3:14:12 Jego Jean Claude (FRA) M45 (+)
1959 3:14:17 Hue Christian (FRA) M31 (+)
1961 3:14:18 Raux Christian (FRA) M25 (+)
1972 3:14:24 Jacques Bessy (FRA) M36 (+)
1976 3:14:25 Brain Gaston (FRA) M52 (+)
1989 3:14:36 Capdevila Jean-paul (FRA) M45 (+)
1992 3:14:38 Faivre Yves (FRA) M41 (+)
2013 3:14:51 Petit François (FRA) M40 (+)
2019 3:14:58 Damis Roger-kenneth (FRA) M41 (+)
2033 3:15:10 Blondet J François (FRA) M36 (+)
2061 3:15:19 Chavoin Jean-luc (FRA) M35 (+)
2069 3:15:25 Burford Caroline (FRA) F34 (+)
2073 3:15:29 Lacaberats Jean (FRA) M52 (+)
2078 3:15:32 Menez Alain (FRA) M49 (+)
2087 3:15:41 Carrascosa Yvan (FRA) M49 (+)
2094 3:15:48 Bataille Bernard (FRA) M51 (+)
2098 3:15:49 Persoons Louis (BEL) M51 (+)
2138 3:16:12 Petit Alain (FRA) M45 (+)
2146 3:16:17 Vellut Jean (FRA) M45 (+)
2147 3:16:18 Marchand Olivier (FRA) M24 (+)
2148 3:16:19 Leher Rosuel (FRA) F36 (+)
2155 3:16:24 Habert Thierry (FRA) M34 (+)
2167 3:16:33 Alcaraz Philippe (FRA) M31 (+)
2169 3:16:33 Monnet Daniel (FRA) M45 (+)
2182 3:16:40 Dumoux Philippe (FRA) M28 (+)
2190 3:16:43 Poteaux Jean Paul (FRA) M41 (+)
2191 3:16:43 Bourgoin Jean-claude (FRA) M45 (+)
2227 3:17:02 Giot Rene (FRA) M41 (+)
2234 3:17:07 David Jean Pierre (FRA) M45 (+)
2256 3:17:20 Giberstein Daniel (FRA) M37 (+)
2260 3:17:21 Barthes Dominique (FRA) M39 (+)
2266 3:17:26 Vincent Alain (FRA) M30 (+)
2276 3:17:29 Georgia Patrick (FRA) M34 (+)
2277 3:17:30 Dassonval Philippe (FRA) M24 (+)
2280 3:17:32 Parmentier Gerard (FRA) M47 (+)
2284 3:17:34 Lecureux Alain (FRA) M39 (+)
2300 3:17:44 Brain Lucien (FRA) M56 (+)
2302 3:17:44 Collongeon Andre (FRA) M39 (+)
2309 3:17:48 Clais François (FRA) M28 (+)
2310 3:17:49 Grelait Serge (FRA) M29 (+)
2320 3:17:53 Raoux Philippe (FRA) M35 (+)
2324 3:17:56 Nguyen-duhamel Patrick (FRA) M21 (+)
2325 3:17:56 Dumas Luc (FRA) M28 (+)
2327 3:17:57 Giot Daniel (FRA) M35 (+)
2340 3:18:02 Girard Hugues (FRA) M41 (+)
2353 3:18:10 Lassoued Sami (FRA) M22 (+)
2354 3:18:10 Bouttecon Alain (FRA) M38 (+)
2371 3:18:20 Farasse Jean-claude (FRA) M40 (+)
2375 3:18:23 Lauwers Maurice (FRA) M55 (+)
2390 3:18:29 Gottvales Henri (FRA) M27 (+)
2411 3:18:38 Libereau Christian (FRA) M41 (+)
2412 3:18:39 Ould-aoudia Vincent (FRA) M40 (+)
2417 3:18:42 Pronost Patrick (FRA) M27 (+)
2421 3:18:44 Alexandre Jean Paul (FRA) M37 (+)
2422 3:18:45 Vauvert Patrick (FRA) M39 (+)
2438 3:18:50 Coutaut Philippe (FRA) M34 (+)
2442 3:18:54 Leclercq Philippe (FRA) M39 (+)
2449 3:18:58 Georgia Bernard (FRA) M40 (+)
2458 3:19:04 Marchand Christian (FRA) M30 (+)
2461 3:19:05 Huteau Michel (FRA) M42 (+)
2475 3:19:12 Turon Jacques (FRA) M43 (+)
2496 3:19:19 Gola Denis (FRA) M35 (+)
2544 3:19:40 Dattero Dominique (FRA) M41 (+)
2558 3:19:47 Morlet Christian (FRA) M45 (+)
2565 3:19:50 Rachinel Olivier (FRA) M38 (+)
2569 3:19:51 Boureau Jean-emmanuele (FRA) M28 (+)
2572 3:19:52 Filhol Daniel (FRA) M47 (+)
2588 3:19:59 Desmons Gerard (FRA) M41 (+)
2604 3:20:09 Py Bernard (FRA) M46 (+)
2607 3:20:11 Lavie Stephane (FRA) M27 (+)
2609 3:20:12 Lavoix Olivier (FRA) M38 (+)
2625 3:20:20 Chapron Herve (FRA) M25 (+)
2629 3:20:23 Lecat Robert (FRA) M49 (+)
2637 3:20:27 Lefebvre Jackie (FRA) M45 (+)
2638 3:20:27 David Jean-michel (FRA) M33 (+)
2649 3:20:32 Bart Jean François (FRA) M41 (+)
2651 3:20:32 Delavaud Gerard (FRA) M36 (+)
2657 3:20:35 Herrera Patrick (FRA) M22 (+)
2668 3:20:39 Barrier Francis (FRA) M41 (+)
2669 3:20:39 Lecamus Patrick (FRA) M29 (+)
2677 3:20:42 Rophille Christian (FRA) M35 (+)
2690 3:20:48 Billon Thierry (FRA) M30 (+)
2699 3:20:54 Valledor Manuel (FRA) M41 (+)
2703 3:20:55 Georgeon Bernard (FRA) M36 (+)
2713 3:20:59 Falque Alain (FRA) M42 (+)
2716 3:21:01 Bailly Christian (FRA) M39 (+)
2718 3:21:01 Serve Roger (FRA) M45 (+)
2722 3:21:03 Lazaro Antonio (FRA) M35 (+)
2723 3:21:03 Chauvin Richard (FRA) M39 (+)
2725 3:21:05 Coquet Regis (FRA) M26 (+)
2738 3:21:12 Sacre Gilles (FRA) M37 (+)
2739 3:21:12 Bocquet Bernard (FRA) M36 (+)
2746 3:21:15 Faye Serge (FRA) M33 (+)
2761 3:21:21 Domergue Thierry (FRA) M23 (+)
2765 3:21:23 Riard Claude (FRA) M47 (+)
2775 3:21:27 Durand Rene (FRA) M40 (+)
2777 3:21:27 Cazal Yves (FRA) M31 (+)
2794 3:21:33 Riffard Jean Claude (FRA) M38 (+)
2796 3:21:34 Bellone Gerard (FRA) M45 (+)
2807 3:21:39 Leblanc Arnaud (FRA) M22 (+)
2818 3:21:44 Larregola Francis (FRA) M38 (+)
2837 3:21:54 Saint Martin Jean-luc (FRA) M32 (+)
2840 3:21:54 Gibello Albert (FRA) M41 (+)
2868 3:22:09 Estragon Gerard (FRA) M51 (+)
2878 3:22:15 Dequidt Eric (FRA) M33 (+)
2880 3:22:17 Gabriele Jean-pierre (FRA) M31 (+)
2887 3:22:19 Kloninger Patrice (FRA) M34 (+)
2908 3:22:30 Couchot Jean Bernard (FRA) M29 (+)
2943 3:22:41 Chauvirey Serge (FRA) M37 (+)
2945 3:22:42 Vialle Andre (FRA) M39 (+)
2959 3:22:46 Sonnet Francine (FRA) F36 (+)
2963 3:22:47 Monnier Jean Pierre (FRA) M34 (+)
2967 3:22:50 Floirac Claude (FRA) M50 (+)
2968 3:22:52 Girard Serge (FRA) M35 (+)
2972 3:22:55 Paire Jean-noel (FRA) M31 (+)
2973 3:22:55 Keita Moise (FRA) M37 (+)
2974 3:22:55 Lepoittevin Michel (FRA) M37 (+)
2976 3:22:56 Mechali Jacques (FRA) M44 (+)
2978 3:22:57 Hansel Daniel (FRA) M40 (+)
2979 3:22:58 Malleville Christian (FRA) M40 (+)
2981 3:22:59 Vassas Christophe (FRA) M23 (+)
2982 3:22:59 Jacob Bernard (FRA) M36 (+)
2990 3:23:05 Sainte Romane Simone (FRA) F37 (+)
2991 3:23:05 Sobieniak Stanislas (FRA) M36 (+)
2999 3:23:07 Peyre Christian (FRA) M53 (+)
3000 3:23:07 Lascaux Laurent (FRA) M33 (+)
3002 3:23:08 Autret Yvon (FRA) M45 (+)
3003 3:23:08 Guidat Christian (FRA) M40 (+)
3010 3:23:10 Blanchet Philippe (FRA) M35 (+)
3013 3:23:10 Pical Gerard (FRA) M42 (+)
3025 3:23:16 Gareil Bernard (FRA) M42 (+)
3027 3:23:16 Massaud Louis (FRA) M51 (+)
3031 3:23:19 Hennequin Bernard (FRA) M34 (+)
3049 3:23:24 Roudolff Florence (FRA) F25 (+)
3051 3:23:24 Renault Dominique (FRA) M36 (+)
3067 3:23:32 Moirand Gerald (FRA) M38 (+)
3068 3:23:33 Deslandes Jean Claude (FRA) M43 (+)
3090 3:23:43 Rich Antoine (FRA) M31 (+)
3093 3:23:44 Morlet Philippe (FRA) M33 (+)
3102 3:23:46 Baudry Regis (FRA) M25 (+)
3103 3:23:46 Papin Maurice (FRA) M43 (+)
3113 3:23:53 Letan Jean-bernard (FRA) M36 (+)
3120 3:23:54 Bouilloux Christian (FRA) M26 (+)
3122 3:23:56 Chanin Jean Marc (FRA) M36 (+)
3133 3:23:59 Mercier Bruno (FRA) M28 (+)
3138 3:24:01 Gagnaire Alain (FRA) M42 (+)
3140 3:24:02 Delaye Alain (FRA) M46 (+)
3148 3:24:05 Montaillard Patrick (FRA) M39 (+)
3164 3:24:15 Brossard Alain (FRA) M35 (+)
3172 3:24:20 Masure Jean-luc (FRA) M28 (+)
3186 3:24:28 Palduplin Alix (FRA) M50 (+)
3188 3:24:28 Richard Alain (FRA) M33 (+)
3189 3:24:28 Josso Michel (FRA) M47 (+)
3190 3:24:28 Clavelier Christophe (FRA) M24 (+)
3195 3:24:29 Chays Pierre-yves (FRA) M41 (+)
3207 3:24:35 Bres Bernard (FRA) M44 (+)
3210 3:24:39 Bouttecon Christian (FRA) M42 (+)
3211 3:24:39 Eymann Claude (FRA) M51 (+)
3212 3:24:40 Paviot Alexandre (FRA) M25 (+)
3219 3:24:43 Fayolle Josiane (FRA) F28 (+)
3237 3:24:50 Bonneau Jean Pierre (FRA) M46 (+)
3238 3:24:51 Fauvel Jean Marie (FRA) M45 (+)
3246 3:24:54 Lachin Serge (FRA) M36 (+)
3261 3:25:01 Hamon Leon (FRA) M40 (+)
3265 3:25:01 Cazanove Pierre (FRA) M36 (+)
3273 3:25:03 Roussel Pierre (FRA) M46 (+)
3281 3:25:05 Monat Marie-therese (FRA) F32 (+)
3293 3:25:11 Roussy Jean-pierre (FRA) M37 (+)
3298 3:25:13 Berge Jean Marc (FRA) M38 (+)
3302 3:25:15 Racineux Marcel (FRA) M46 (+)
3304 3:25:15 Aubert Robert (FRA) M44 (+)
3305 3:25:16 Rosello Jean-pierre (FRA) M51 (+)
3306 3:25:16 Roux Olivier (FRA) M27 (+)
3309 3:25:17 Geiger Bernard (FRA) M47 (+)
3310 3:25:18 Gorre Alfred (FRA) M39 (+)
3321 3:25:21 Guicheteau Bernard (FRA) M47 (+)
3342 3:25:28 Delongvilliers Laurent (FRA) M23 (+)
3347 3:25:30 Lair Michel (FRA) M34 (+)
3355 3:25:32 Lebois Roger (FRA) M47 (+)
3378 3:25:40 Guerard Pascal (FRA) M45 (+)
3391 3:25:43 Quenot François (FRA) M28 (+)
3399 3:25:46 Peroux Jean-louis (FRA) M48 (+)
3410 3:25:49 Bernard Paul (FRA) M54 (+)
3418 3:25:53 Thieulin Jean-paul (FRA) M46 (+)
3425 3:25:56 Nussbaum Richard (FRA) M28 (+)
3431 3:25:58 Beaubay Alain (FRA) M38 (+)
3436 3:25:59 Ronzino Michel (FRA) M34 (+)
3476 3:26:19 Vieuble Daniel (FRA) M41 (+)
3482 3:26:20 Seckler Daniel (FRA) M35 (+)
3485 3:26:21 Seret Jacques (FRA) M40 (+)
3487 3:26:23 Nevoux Jean (FRA) M38 (+)
3495 3:26:26 Meissonnier Michel (FRA) M40 (+)
3496 3:26:26 Ryberon Chantal (FRA) F31 (+)
3500 3:26:27 Brick Gerard (FRA) M41 (+)
3532 3:26:39 Pempie Pascal (FRA) M40 (+)
3542 3:26:44 Gandibleux Francis (FRA) M26 (+)
3569 3:26:57 Jaeger France (FRA) F34 (+)
3575 3:26:58 Abeille Jean Pierre (FRA) M37 (+)
3596 3:27:06 Lillie Jean-luc (FRA) M38 (+)
3598 3:27:06 Luthringer Alain (FRA) M40 (+)
3610 3:27:12 Roggy Aline (FRA) F37 (+)
3612 3:27:12 Legras Gervais (FRA) M21 (+)
3614 3:27:13 Leguennec Pierre-yves (FRA) M41 (+)
3627 3:27:20 Montmeza Gerard (FRA) M37 (+)
3635 3:27:23 Bachou Alain (FRA) M37 (+)
3646 3:27:30 Violette Roger (FRA) M53 (+)
3649 3:27:30 Roggy Jean-pierre (FRA) M43 (+)
3655 3:27:32 Lomazzi Jack (FRA) M33 (+)
3664 3:27:37 Beaudelot Jean Luc (FRA) M38 (+)
3669 3:27:39 Cueuille Gerald (FRA) M37 (+)
3670 3:27:39 Tarbouriech Hubert (FRA) M37 (+)
3677 3:27:43 Euvrard Bruno (FRA) M23 (+)
3692 3:27:48 Saint-jours Claude (FRA) M54 (+)
3693 3:27:48 Legendre Alain (FRA) M34 (+)
3696 3:27:49 Slusarczyk Gerard (FRA) M35 (+)
3708 3:27:53 Laverdure Gerard (FRA) M40 (+)
3714 3:27:56 Selva Charles (FRA) M48 (+)
3765 3:28:19 Pirali Paul (FRA) M39 (+)
3777 3:28:22 Talland Maurice (FRA) M43 (+)
3782 3:28:24 Moro-sibilot Charly (FRA) M52 (+)
3793 3:28:28 Delbert Jean Paul (FRA) M30 (+)
3794 3:28:29 Salzenstein Georges (FRA) M46 (+)
3811 3:28:34 Hugues Yvan (FRA) M53 (+)
3815 3:28:35 Ville Pontoux Gilles (FRA) M44 (+)
3857 3:28:48 Vigne Daniel (FRA) M35 (+)
3885 3:28:57 Liehr Philippe (FRA) M28 (+)
3886 3:28:57 Hautreux Rene (FRA) M47 (+)
3907 3:29:04 Laube Rene (FRA) M49 (+)
3910 3:29:05 Capus Gerard (FRA) M40 (+)
3934 3:29:15 Guimoneau Nelly (FRA) F32 (+)
3966 3:29:24 Collet Jean (FRA) M27 (+)
3967 3:29:24 Mokrab Jean (FRA) M34 (+)
3986 3:29:31 Potet Eric (FRA) M28 (+)
3990 3:29:32 Bras Michel (FRA) M42 (+)
4003 3:29:37 Pocard Christian (FRA) M38 (+)
4004 3:29:38 Pocard Brigitte (FRA) F36 (+)
4046 3:29:50 Ballet Jean Claude (FRA) M38 (+)
4062 3:29:54 Torres Yves (FRA) M35 (+)
4066 3:29:58 Genot Marc (FRA) M37 (+)
4069 3:30:00 Collado Alain (FRA) M48 (+)
4082 3:30:07 Corvee Serge (FRA) M40 (+)
4086 3:30:09 Coubard Luc (FRA) M33 (+)
4090 3:30:11 Maillet Robert (FRA) M41 (+)
4092 3:30:12 Delacour Thierry (FRA) M27 (+)
4106 3:30:18 Lelagadec Bernard (FRA) M39 (+)
4110 3:30:22 Diot Nicole (FRA) F37 (+)
4116 3:30:23 Moulhade Jean-luc (FRA) M33 (+)
4121 3:30:25 Delaunois Andre (FRA) M42 (+)
4124 3:30:27 Leger Philippe (FRA) M29 (+)
4134 3:30:32 Tournay Michel (FRA) M29 (+)
4136 3:30:33 Lanot Jean-marc (FRA) M50 (+)
4144 3:30:35 Lemercier Henri (FRA) M35 (+)
4149 3:30:36 Hippon Victor (FRA) M51 (+)
4151 3:30:37 Regis Adeline (FRA) M24 (+)
4157 3:30:41 Princay Jean-claude (FRA) M51 (+)
4158 3:30:42 Chipon Gerard (FRA) M35 (+)
4163 3:30:43 Grandury Remi (FRA) M24 (+)
4164 3:30:43 Lafay Michel (FRA) M29 (+)
4169 3:30:44 Comte Frederic (FRA) M27 (+)
4189 3:30:51 Vidil Serge (FRA) M35 (+)
4191 3:30:52 Pakloglou Michel (FRA) M39 (+)
4194 3:30:54 Lansard Max (FRA) M50 (+)
4201 3:31:00 Schmidt Pascal (FRA) M28 (+)
4228 3:31:17 Schmitt Pascal (FRA) M27 (+)
4257 3:31:35 Mabille Charles (FRA) M42 (+)
4272 3:31:42 Badets Pierre (FRA) M53 (+)
4278 3:31:44 Mas Alain (FRA) M34 (+)
4286 3:31:47 Gobert Daniel (FRA) M36 (+)
4300 3:31:52 Obry Roland (FRA) M41 (+)
4317 3:32:01 Lemuhot Eric (FRA) M33 (+)
4318 3:32:01 Wadel Bernard (FRA) M40 (+)
4332 3:32:04 Ardiet Alain (FRA) M36 (+)
4340 3:32:07 Devoize Jean-louis (FRA) M36 (+)
4353 3:32:12 Paris Bernard (FRA) M47 (+)
4358 3:32:13 Farouk Sharara (FRA) M41 (+)
4367 3:32:17 Grenier Gerard (FRA) M42 (+)
4395 3:32:24 Tourvieille Bernard (FRA) M41 (+)
4403 3:32:27 Castejurry Jean Pierre (FRA) M37 (+)
4415 3:32:32 Franchini Frederic (FRA) M26 (+)
4432 3:32:39 Haverland Guy (FRA) M36 (+)
4446 3:32:43 Pierrot Claude (FRA) M44 (+)
4458 3:32:46 Baillet Alain (FRA) M38 (+)
4462 3:32:46 Bonneton Jacques (FRA) M35 (+)
4467 3:32:50 Bourgeois Dominique (FRA) M30 (+)
4488 3:33:00 Bouhours Marius (FRA) M48 (+)
4495 3:33:05 Vincens Francis (FRA) M36 (+)
4496 3:33:05 Frilet Bernard (FRA) M35 (+)
4516 3:33:17 Zapelloni Jean-françois (FRA) M23 (+)
4537 3:33:24 Claude Bernard (FRA) M25 (+)
4539 3:33:25 Castillo Jean Luc (FRA) M30 (+)
4547 3:33:27 Begoc Jean Guillaume (FRA) M42 (+)
4556 3:33:28 Daime Daniel (FRA) M41 (+)
4563 3:33:31 Lazou Daniel (FRA) M39 (+)
4574 3:33:33 Dreyfuss Jacques (FRA) M57 (+)
4576 3:33:34 Blanchard Patrick (FRA) M36 (+)
4592 3:33:40 Chikhi Amar (FRA) M47 (+)
4601 3:33:44 Reilhac Bernard (FRA) M36 (+)
4602 3:33:45 Cau Bernard (FRA) M42 (+)
4603 3:33:45 Revenu Jean-loup (FRA) M40 (+)
4605 3:33:46 Kamiski Michel (FRA) M36 (+)
4610 3:33:47 Lathiere Philippe (FRA) M43 (+)
4628 3:33:55 Lombard Gilles (FRA) M29 (+)
4630 3:33:56 Tripodi Robert (FRA) M36 (+)
4640 3:34:02 Migaud Marcel (FRA) M43 (+)
4648 3:34:05 Jacquot Alain (FRA) M38 (+)
4656 3:34:08 Leobon Helene (FRA) F44 (+)
4661 3:34:09 Escleine Patrick (FRA) M35 (+)
4663 3:34:10 Magne Jean-louis (FRA) M46 (+)
4668 3:34:12 Vabre Guy (FRA) M35 (+)
4703 3:34:28 Lafeuille Pierre (FRA) M49 (+)
4710 3:34:30 Mino-vercelli Yves (FRA) M36 (+)
4733 3:34:39 Loison Jacky (FRA) M41 (+)
4735 3:34:40 Loison Jean Claude (FRA) M45 (+)
4736 3:34:40 Genot Jean-luc (FRA) M28 (+)
4738 3:34:41 Lapanderie Gerard (FRA) M39 (+)
4743 3:34:42 Schneller Alain (FRA) M41 (+)
4774 3:34:53 Blanchard Michel (FRA) M41 (+)
4776 3:34:54 Langer Henri (FRA) M40 (+)
4784 3:34:56 Widmer Jean-claude (FRA) M48 (+)
4785 3:34:56 Mallet Christian (FRA) M34 (+)
4787 3:34:57 Thompson Christopher (FRA) M39 (+)
4790 3:34:57 Delnevo Jean Louis (FRA) M43 (+)
4792 3:34:58 Bichaud Jacques (FRA) M40 (+)
4795 3:34:59 Lavail Georges (FRA) M44 (+)
4804 3:35:04 Girel Gerard (FRA) M42 (+)
4806 3:35:05 Beudin Jean Charles (FRA) M39 (+)
4807 3:35:05 Fournier Pierre (FRA) M40 (+)
4808 3:35:06 Cavert Bernard (FRA) M39 (+)
4814 3:35:07 Bonnet François (FRA) M35 (+)
4816 3:35:08 Mauduit Jean-marie (FRA) M41 (+)
4830 3:35:14 Peneau Xavier (FRA) M38 (+)
4840 3:35:18 Rubio Claude (FRA) M50 (+)
4842 3:35:19 Deconinck Patrice (FRA) M28 (+)
4848 3:35:20 Geffroy Emile (FRA) M46 (+)
4857 3:35:25 Moaligou Christian (FRA) M44 (+)
4859 3:35:25 Meixner Gerard (FRA) M39 (+)
4877 3:35:33 Avanturier François (FRA) M18 (+)
4878 3:35:33 Hourcadet Pierre (FRA) M47 (+)
4885 3:35:38 Lebeuze Bernard (FRA) M39 (+)
4890 3:35:40 Szlamka Michel (FRA) M44 (+)
4896 3:35:42 Gervais Pierre (FRA) M42 (+)
4901 3:35:43 Boudet Christian (FRA) M28 (+)
4904 3:35:45 Poingt Jean-pierre (FRA) M40 (+)
4916 3:35:50 Graic Eric (FRA) M26 (+)
4918 3:35:50 Wickers Thierry (FRA) M34 (+)
4919 3:35:50 Mairot Didier (FRA) M27 (+)
4930 3:35:54 Berkane Robert (FRA) M45 (+)
4933 3:35:55 Herve Jean (FRA) M48 (+)
4937 3:35:56 Zerbib Guy (FRA) M49 (+)
4938 3:35:56 Diss Dominique (FRA) M22 (+)
4948 3:36:00 Leroy Philippe (FRA) M30 (+)
4949 3:36:01 Monat Yvon (FRA) M31 (+)
4972 3:36:10 Girier Marc (FRA) M41 (+)
4977 3:36:12 Parchet Jean-michel (FRA) M44 (+)
4993 3:36:15 Bideault Frederic (FRA) M23 (+)
5001 3:36:17 Coquibus Jean Claude (FRA) M50 (+)
5019 3:36:27 Mas Robert (FRA) M31 (+)
5020 3:36:28 Chaluet Emile (FRA) M33 (+)
5030 3:36:31 Bene Patrice (FRA) M26 (+)
5036 3:36:32 Farejeaux Robert (FRA) M33 (+)
5037 3:36:32 Charles Thierry (FRA) M33 (+)
5042 3:36:34 Marenco Pierre (FRA) M39 (+)
5058 3:36:39 Brzenczek Freddy (FRA) M33 (+)
5065 3:36:43 Passalacqua Robert (FRA) M39 (+)
5067 3:36:45 Soetinck Franck (FRA) M29 (+)
5074 3:36:47 Goy Jean-louis (FRA) M39 (+)
5081 3:36:50 Parat Christian (FRA) M40 (+)
5090 3:36:52 Thabuis Jean-michel (FRA) M38 (+)
5100 3:36:57 Bracquemont Jacques (FRA) M39 (+)
5102 3:36:57 Herblot Pierre (FRA) M56 (+)
5127 3:37:05 Iraola Michel (FRA) M43 (+)
5130 3:37:06 Mouhat Pierre (FRA) M54 (+)
5134 3:37:07 Dulin Thierry (FRA) M35 (+)
5147 3:37:11 Duvert Bruno (FRA) M37 (+)
5160 3:37:17 Lethuillier Bernard (FRA) M49 (+)
5184 3:37:28 Buo Bruno (FRA) M31 (+)
5195 3:37:34 Monsel François (FRA) M25 (+)
5196 3:37:35 Bariat Guy (FRA) M50 (+)
5231 3:37:46 Pons Benoit (FRA) M43 (+)
5236 3:37:47 Messidoro Denis (FRA) M25 (+)
5237 3:37:48 Meviani Serge (FRA) M31 (+)
5238 3:37:48 Tadie Patrick (FRA) M43 (+)
5252 3:37:51 Heymann Jean Pierre (FRA) M45 (+)
5254 3:37:52 Montagnier Jean (FRA) M33 (+)
5270 3:37:56 Berenger Marc (FRA) M35 (+)
5279 3:38:00 Rossetti Gilles (FRA) M58 (+)
5282 3:38:01 Freneaux Marie-france (FRA) F33 (+)
5343 3:38:20 Fauche Jacques (FRA) M43 (+)
5349 3:38:22 Burel Christian (FRA) M35 (+)
5358 3:38:25 Thevenet Jean Pierre (FRA) M38 (+)
5359 3:38:25 Michel Henri (FRA) M50 (+)
5361 3:38:26 Defay Andre (FRA) M41 (+)
5371 3:38:31 Abram Alain (FRA) M44 (+)
5373 3:38:31 Dupuis Jack (FRA) M44 (+)
5376 3:38:33 Dautreaux Philippe (FRA) M39 (+)
5380 3:38:34 Cabanes Jacques (FRA) M46 (+)
5394 3:38:39 Kabalo Prosper (FRA) M33 (+)
5400 3:38:40 Clauzier Jean Pierre (FRA) M49 (+)
5402 3:38:40 Guillemin Josette (FRA) F45 (+)
5406 3:38:42 Yeghiayan Arsene (FRA) M52 (+)
5411 3:38:43 Maache Jean-louis (FRA) M31 (+)
5434 3:38:49 Besnard Alexandre (FRA) M47 (+)
5438 3:38:50 François Michel (FRA) M43 (+)
5447 3:38:52 Cellard Jean Claude (FRA) M48 (+)
5448 3:38:54 Arnaud Alain (FRA) M35 (+)
5493 3:39:13 Balandraud Daniel (FRA) M43 (+)
5504 3:39:16 Barbes Pierre (FRA) M39 (+)
5507 3:39:16 Van De Walle Cedric (FRA) M35 (+)
5524 3:39:23 Ouvrard Patrick (FRA) M27 (+)
5541 3:39:28 Sozzy Gerard (FRA) M37 (+)
5555 3:39:33 Belin Claude (FRA) M49 (+)
5570 3:39:36 Dupuis Christophe (FRA) M20 (+)
5580 3:39:38 Michaud Paul (FRA) M32 (+)
5582 3:39:38 Ghestem Michel (FRA) M18 (+)
5583 3:39:38 Nassivet Yannick (FRA) M40 (+)
5586 3:39:39 Fischer Maxine (FRA) M27 (+)
5588 3:39:40 Sanchez Pascal (FRA) M29 (+)
5605 3:39:44 Dinslage Sabine (FRA) F34 (+)
5638 3:39:54 Noirdoudre Jean Louis (FRA) M38 (+)
5644 3:39:56 Rogaume Francis (FRA) M39 (+)
5657 3:40:01 Alessandra Jean Christophe (FRA) M30 (+)
5658 3:40:01 Lopez Gerard (FRA) M44 (+)
5667 3:40:05 Delarue Philippe (FRA) M37 (+)
5680 3:40:11 Bastelica Edmond (FRA) M46 (+)
5693 3:40:19 Deforet Daniel (FRA) M37 (+)
5694 3:40:20 Magne Camille (FRA) M31 (+)
5698 3:40:21 Prevost Jean François (FRA) M46 (+)
5706 3:40:24 Delalix Serge (FRA) M56 (+)
5716 3:40:28 David Thierry (FRA) M28 (+)
5717 3:40:28 Carraz Claudie (FRA) F37 (+)
5722 3:40:29 Crosbie Claude (FRA) M43 (+)
5723 3:40:29 Duval Gerard (FRA) M48 (+)
5743 3:40:36 Bourdel Didier (FRA) M32 (+)
5744 3:40:36 Duvoid Guy (FRA) M36 (+)
5749 3:40:37 Cousin Bernard (FRA) M29 (+)
5756 3:40:39 Chantemargue Jean-françois (FRA) M31 (+)
5763 3:40:41 Galant Daniel (FRA) M27 (+)
5765 3:40:42 Walczak Eric (FRA) M33 (+)
5789 3:40:49 Ambroise Isabelle (FRA) F36 (+)
5806 3:40:53 Vassal Claude (FRA) M51 (+)
5821 3:41:00 Hequet Maguy (FRA) F41 (+)
5858 3:41:14 Roux François (FRA) M23 (+)
5861 3:41:14 Roulet Jean-pierre (FRA) M42 (+)
5878 3:41:22 Robichon Jean-claude (FRA) M37 (+)
5884 3:41:24 Peroux Marie Pierre (FRA) F29 (+)
5886 3:41:25 Batchelor Paula (FRA) F24 (+)
5904 3:41:32 Peysson Cyril (FRA) M23 (+)
5914 3:41:34 Charpentier Jacqueline (FRA) F52 (+)
5915 3:41:35 Billard Dominique (FRA) M42 (+)
5920 3:41:37 Crionnet Paulette (FRA) F42 (+)
5945 3:41:45 Pouget Francis (FRA) M46 (+)
5950 3:41:46 Bouet Marc (FRA) M44 (+)
5983 3:41:54 Bourlette Nadine (FRA) F39 (+)
5986 3:41:55 Gras Daniel (FRA) M41 (+)
5987 3:41:55 Dubon Jean-marc (FRA) M32 (+)
5996 3:41:57 Thillard Philippe (FRA) M29 (+)
5997 3:41:57 Bekas Camel (FRA) M31 (+)
6011 3:42:03 Cicolella Gerard (FRA) M48 (+)
6013 3:42:04 Villard Christian (FRA) M37 (+)
6018 3:42:06 Lejwi Gilbert (FRA) M50 (+)
6030 3:42:09 Schmaltz Christian (FRA) M35 (+)
6031 3:42:10 Dausse Jean-louis (FRA) M45 (+)
6033 3:42:11 Hoyau Alain (FRA) M42 (+)
6034 3:42:11 Somarriba Oscar (FRA) M32 (+)
6036 3:42:11 Petiniaud Gilbert (FRA) M51 (+)
6041 3:42:12 Vincent Pierre (FRA) M46 (+)
6055 3:42:15 Defauw Philippe (FRA) M39 (+)
6057 3:42:16 Savoldelli Michel (FRA) M30 (+)
6069 3:42:20 Racineux Gilbert (FRA) M45 (+)
6078 3:42:24 Pruvost Jacques (FRA) M37 (+)
6080 3:42:25 Ernoult Paule (FRA) F53 (+)
6087 3:42:28 Jezouin Max (FRA) M38 (+)
6096 3:42:32 Vasseliere Michel (FRA) M46 (+)
6115 3:42:37 Giffard Philippe (FRA) M35 (+)
6117 3:42:38 Tari Robert (FRA) M55 (+)
6118 3:42:38 Tari Andre (FRA) M48 (+)
6136 3:42:44 Blanvillain Didier (FRA) M35 (+)
6137 3:42:44 Berland Alain (FRA) M26 (+)
6139 3:42:46 Daudey Gilles (FRA) M30 (+)
6160 3:42:54 Cartellier Paul (FRA) M59 (+)
6163 3:42:55 Orsoni Pierre (FRA) M50 (+)
6174 3:42:59 Bachelet Hugues (FRA) M53 (+)
6177 3:43:00 Etienne Guy (FRA) M49 (+)
6191 3:43:04 Elia-ballet Rene (FRA) M35 (+)
6209 3:43:10 Mokrab Mohand (FRA) M21 (+)
6211 3:43:11 Ananou Marc (FRA) M30 (+)
6216 3:43:12 Bourlette Denis (FRA) M38 (+)
6231 3:43:18 Segura Michel (FRA) M40 (+)
6239 3:43:19 Desfeux Jean Bernard (FRA) M37 (+)
6242 3:43:20 Faure Gerard (FRA) M36 (+)
6245 3:43:21 Rueda Richard (FRA) M40 (+)
6283 3:43:28 Pical Dominique (FRA) F39 (+)
6285 3:43:28 Raphenne Eric (FRA) M32 (+)
6287 3:43:29 Quilici Nicolas (FRA) M36 (+)
6311 3:43:38 Deconinck Eric (FRA) M40 (+)
6317 3:43:40 Dalmasso Philippe (FRA) M31 (+)
6318 3:43:40 Journes Jean-paul (FRA) M36 (+)
6320 3:43:40 Abraham Robert (FRA) M44 (+)
6325 3:43:41 Bonnet Alain (FRA) M30 (+)
6333 3:43:44 Iwachow Edmann (FRA) M42 (+)
6335 3:43:44 Dufour Lionel (FRA) M42 (+)
6371 3:43:55 Ardiet Jean Michel (FRA) M37 (+)
6376 3:43:55 Vavasseur Gerard (FRA) M40 (+)
6406 3:44:06 Hoock Patrick (FRA) M40 (+)
6448 3:44:20 Beauclair Jacques (FRA) M32 (+)
6454 3:44:22 Dewitte Daniel (FRA) M39 (+)
6455 3:44:22 Moreno Antoine (FRA) M36 (+)
6457 3:44:23 Babassud Christian (FRA) M42 (+)
6458 3:44:23 Simon Patrice (FRA) M29 (+)
6462 3:44:24 Maddalena Claude (FRA) M46 (+)
6468 3:44:25 Dupont Claude (FRA) M46 (+)
6474 3:44:27 Champenois Jean-pierre (FRA) M35 (+)
6482 3:44:32 Dupuis Thierry (FRA) M31 (+)
6483 3:44:32 Ferret Christian (FRA) M28 (+)
6503 3:44:38 Delion Robert (FRA) M41 (+)
6508 3:44:39 Albrand Jean-pierre (FRA) M42 (+)
6515 3:44:40 Ragot Alain (FRA) M41 (+)
6517 3:44:40 Ziegler Philippe (FRA) M22 (+)
6533 3:44:44 Morlin Alain (FRA) M25 (+)
6556 3:44:52 Chassang Maurice (FRA) M46 (+)
6570 3:44:56 Compere Bernard (FRA) M56 (+)
6578 3:44:57 Combe Andre (FRA) M45 (+)
6579 3:44:57 Dry Philippe (FRA) M26 (+)
6584 3:44:58 Leobon François (FRA) M46 (+)
6589 3:45:00 Lavigne Pierre (FRA) M52 (+)
6595 3:45:02 Tabakhoff Pascal (FRA) M24 (+)
6601 3:45:04 Nahmany Charles (FRA) M34 (+)
6617 3:45:09 Lefloch Jean-pierre (FRA) M37 (+)
6619 3:45:10 Fouarge Yves (FRA) M41 (+)
6631 3:45:13 M'lobaye Djimtolnan (FRA) M34 (+)
6643 3:45:18 Gental Alain (FRA) M41 (+)
6647 3:45:19 Chatelain Christian (FRA) M30 (+)
6649 3:45:19 Rodriguez Juan-jose (FRA) M23 (+)
6651 3:45:20 Damis Alain (FRA) M24 (+)
6664 3:45:24 Hezard Guy (FRA) M43 (+)
6672 3:45:26 Raes Alain (FRA) M41 (+)
6673 3:45:26 Massot Alain (FRA) M31 (+)
6689 3:45:32 Irion François (FRA) M49 (+)
6695 3:45:34 Robin Jacques (FRA) M42 (+)
6699 3:45:35 Plaisancie Henri (FRA) M34 (+)
6701 3:45:35 Lebrusq Alain (FRA) M35 (+)
6704 3:45:36 Laguin Claude (FRA) M44 (+)
6706 3:45:36 Nivelle Bernard (FRA) M31 (+)
6707 3:45:36 Verrier Muriel (FRA) F39 (+)
6723 3:45:41 Rimbot Jacques (FRA) M37 (+)
6724 3:45:42 Pitavy Roger (FRA) M45 (+)
6735 3:45:45 Lasserre Fernand (FRA) M43 (+)
6742 3:45:47 Carlot Serge (FRA) M34 (+)
6748 3:45:50 Berlin Rodolphe (FRA) M29 (+)
6750 3:45:50 Subra Michel (FRA) M38 (+)
6770 3:45:56 Gonthier Yves (FRA) M34 (+)
6781 3:45:59 Pereira Alberto (FRA) M26 (+)
6786 3:46:02 Bardiau Christian (FRA) M40 (+)
6796 3:46:06 Bringer Jacques (FRA) M41 (+)
6801 3:46:07 Paoli Marc (FRA) M22 (+)
6807 3:46:11 Carrere Francis (FRA) M37 (+)
6809 3:46:11 Thomas Jean Michel (FRA) M44 (+)
6821 3:46:15 Garcia Michel (FRA) M45 (+)
6846 3:46:23 Monteilhet Louis (FRA) M36 (+)
6849 3:46:23 Jourdan Jean-paul (FRA) M35 (+)
6851 3:46:24 Hainigue François (FRA) M36 (+)
6887 3:46:36 Mercado Henri (FRA) M45 (+)
6888 3:46:36 Lykakis Basile (FRA) M38 (+)
6900 3:46:39 Michallet Marcel (FRA) M43 (+)
6905 3:46:43 Gola Yves (FRA) M39 (+)
6911 3:46:45 Devittoris Guido (FRA) M59 (+)
6913 3:46:45 Vincent Michel (FRA) M51 (+)
6921 3:46:48 Mermet Alain (FRA) M39 (+)
6927 3:46:48 Ruiz Elieos (FRA) M43 (+)
6935 3:46:50 Barthelemy Marc (FRA) M34 (+)
6953 3:46:56 Boudou Daniel (FRA) M40 (+)
6956 3:46:56 Andrieu Yves (FRA) M54 (+)
6961 3:46:57 Bray Gerard (FRA) M46 (+)
6967 3:46:58 Gestin Pierre (FRA) M29 (+)
6985 3:47:01 Ouvrierbuffet Patrice (FRA) M24 (+)
7008 3:47:10 Perardel Christian (FRA) M40 (+)
7025 3:47:16 Escaich Andre (FRA) M38 (+)
7031 3:47:16 Chapelle Anne Marie (FRA) F53 (+)
7067 3:47:23 Boulanger Pierre (FRA) M34 (+)
7076 3:47:26 Maheu Bruno (FRA) M38 (+)
7080 3:47:27 Jasselin Gerard (FRA) M30 (+)
7082 3:47:27 Caroff Andre (FRA) M44 (+)
7086 3:47:28 Hervet Jacques (FRA) M27 (+)
7109 3:47:35 Blondet Paul (FRA) M44 (+)
7134 3:47:44 Alexandre Maurice (FRA) M41 (+)
7137 3:47:45 Merdy François (FRA) M29 (+)
7168 3:47:53 Mennella Robert (FRA) M35 (+)
7170 3:47:53 Lemauff Jean-pierre (FRA) M42 (+)
7171 3:47:53 Mennella Michel (FRA) M51 (+)
7177 3:47:55 Caubere Michel (FRA) M36 (+)
7189 3:47:58 Martin Hubert (FRA) M28 (+)
7223 3:48:11 Redon Jean-yves (FRA) M29 (+)
7231 3:48:14 Malet Jean-pierre (FRA) M36 (+)
7240 3:48:17 Herrard Michel (FRA) M39 (+)
7249 3:48:22 Fernandez Guy (FRA) M46 (+)
7252 3:48:23 Laura Robert (FRA) M50 (+)
7255 3:48:24 Vassas Francis (FRA) M42 (+)
7263 3:48:26 Grandjean Jean Claude (FRA) M43 (+)
7280 3:48:34 Watiez Dominique (FRA) M32 (+)
7310 3:48:42 Heurtault Bernard (FRA) M45 (+)
7318 3:48:45 Pons Richard (FRA) M32 (+)
7321 3:48:46 Castro Pierre Louis C (FRA) M29 (+)
7323 3:48:46 Mercier Alain (FRA) M36 (+)
7326 3:48:47 Nabot Jacques (FRA) M48 (+)
7344 3:48:56 Cibla Jean-claude (FRA) M43 (+)
7353 3:48:59 Marsal François (FRA) M37 (+)
7355 3:49:01 Evanno Pierre (FRA) M42 (+)
7366 3:49:03 Clanet Serge (FRA) M35 (+)
7374 3:49:06 Lugrin Roger (FRA) M56 (+)
7387 3:49:09 Delaunay Emmanuel (FRA) M23 (+)
7401 3:49:14 Capel Jean (FRA) M46 (+)
7423 3:49:19 Gaudier Bernard (FRA) M40 (+)
7430 3:49:22 Bonenfant Alphonse (FRA) M46 (+)
7432 3:49:23 Roudil Eric (FRA) M41 (+)
7453 3:49:29 Maquet Gabriel (FRA) M49 (+)
7457 3:49:30 Derufz Lavison Jean Vital J (FRA) M38 (+)
7459 3:49:30 Rousseau Anne-chantal (FRA) F43 (+)
7468 3:49:31 Gouron Paul (FRA) M43 (+)
7475 3:49:34 Tuvache Jacques (FRA) M36 (+)
7489 3:49:38 Bouttecon Micheline (FRA) F37 (+)
7495 3:49:39 Frere Marc (FRA) M50 (+)
7507 3:49:42 Broine Alexander (FRA) M22 (+)
7518 3:49:45 Maze Dominique (FRA) M36 (+)
7526 3:49:49 Voiriot Andre (FRA) M47 (+)
7544 3:49:58 Royer Daniel (FRA) M49 (+)
7550 3:50:00 Rey Emile (FRA) M34 (+)
7558 3:50:01 Cambus Gerard (FRA) M40 (+)
7574 3:50:07 Gackowski Joseph (FRA) M55 (+)
7575 3:50:08 Chapelle Patrice (FRA) M40 (+)
7605 3:50:17 Lenhardt Vincent (FRA) M46 (+)
7610 3:50:18 Giachino Denis (FRA) M30 (+)
7623 3:50:21 Broquin Daniel (FRA) M37 (+)
7624 3:50:22 Courteboeuf Regis (FRA) M34 (+)
7631 3:50:23 Bovis Gilbert (FRA) M43 (+)
7660 3:50:31 Vilaret Michel (FRA) M40 (+)
7663 3:50:32 Crespy Richard (FRA) M42 (+)
7668 3:50:33 Mandart Armel (FRA) M40 (+)
7675 3:50:36 Pauchard Marc (FRA) M35 (+)
7689 3:50:40 Amar Robert (FRA) M49 (+)
7691 3:50:41 Bruno Jacques (FRA) M46 (+)
7710 3:50:47 Gutierrez Albert (FRA) M32 (+)
7714 3:50:48 Delabarre Nicolas (FRA) M20 (+)
7715 3:50:48 Renaux Andre (FRA) M37 (+)
7716 3:50:48 Charret Daniel (FRA) M44 (+)
7718 3:50:49 Martin Jean-michel (FRA) M28 (+)
7726 3:50:51 Marie Didier (FRA) M31 (+)
7743 3:50:55 Sabatier Colette (FRA) F39 (+)
7745 3:50:55 Mohr Pierre (FRA) M44 (+)
7755 3:50:58 Deseguin Charles (FRA) M41 (+)
7759 3:50:59 Dardon Claude (FRA) M35 (+)
7761 3:51:00 Bichel Philippe (FRA) M32 (+)
7762 3:51:00 Faucher Marie (FRA) F37 (+)
7764 3:51:01 Neel Cecile (FRA) F24 (+)
7775 3:51:04 Debord Guy (FRA) M43 (+)
7784 3:51:07 Rouge Guy (FRA) M51 (+)
7807 3:51:16 Castan Jean-luc (FRA) M27 (+)
7817 3:51:20 Archet Anne (FRA) F45 (+)
7818 3:51:21 Bernheim Yves (FRA) M40 (+)
7847 3:51:28 Masciave François (FRA) M27 (+)
7868 3:51:34 Collet Noel (FRA) M42 (+)
7882 3:51:36 Lorillo Marc (FRA) M27 (+)
7894 3:51:38 Der Kasparian Gerard (FRA) M31 (+)
7907 3:51:44 Haas Jean (FRA) M50 (+)
7915 3:51:45 Stauffer Michel (FRA) M39 (+)
7924 3:51:48 Doux Jean Charles (FRA) M25 (+)
7933 3:51:50 Coser Stephane (FRA) M44 (+)
7951 3:51:57 Theil Roger (FRA) M57 (+)
7966 3:52:00 Lelorain Claude (FRA) M49 (+)
7978 3:52:03 Offredi Jean Pierre (FRA) M41 (+)
7987 3:52:06 Boutard Arlette (FRA) F44 (+)
7989 3:52:07 Bonzom Bernard (FRA) M57 (+)
8009 3:52:16 Daudergnies Jean Luc (FRA) M29 (+)
8011 3:52:17 Padovan Patrick (FRA) M34 (+)
8020 3:52:20 Agnelli Jean Louis A (FRA) M36 (+)
8028 3:52:21 Celdran Jean Paul (FRA) M42 (+)
8037 3:52:25 Sauve Gerard (FRA) M39 (+)
8046 3:52:27 Nouen Jean-pierre (FRA) M35 (+)
8049 3:52:28 Cazau Richard (FRA) M37 (+)
8057 3:52:30 Veauvy Martine (FRA) F36 (+)
8089 3:52:41 Delorme Rene (FRA) M47 (+)
8090 3:52:42 Prie Charles (FRA) M46 (+)
8100 3:52:45 Munier Marc (FRA) M38 (+)
8105 3:52:45 Patois Yves (FRA) M27 (+)
8113 3:52:47 Faure Joelle (FRA) F38 (+)
8120 3:52:49 Perrot Georges (FRA) M41 (+)
8124 3:52:50 Sabatie-garat Bruno (FRA) M40 (+)
8141 3:52:55 Bouland Jean François (FRA) M40 (+)
8160 3:53:01 Garnero Alfred (FRA) M40 (+)
8166 3:53:02 Leydet Patrick (FRA) M33 (+)
8171 3:53:04 Nourrissier Andre (FRA) M58 (+)
8175 3:53:04 Lallement Andre (FRA) M44 (+)
8190 3:53:09 Marcorelles Yves (FRA) M38 (+)
8192 3:53:09 Plo Maurice (FRA) M41 (+)
8208 3:53:14 Huber Jean (FRA) M45 (+)
8209 3:53:14 Segura Michel (FRA) M31 (+)
8214 3:53:16 Ramacciotti Adolphe (FRA) M36 (+)
8233 3:53:24 Robin Michel (FRA) M50 (+)
8235 3:53:24 Duparc Daniel (FRA) M45 (+)
8236 3:53:24 Tirmarche Dominique (FRA) M39 (+)
8241 3:53:27 Delaunay Dominique (FRA) M35 (+)
8248 3:53:29 Orven Jean François (FRA) M42 (+)
8250 3:53:30 Daudet Gilbert (FRA) M51 (+)
8283 3:53:38 Mandrillon Alain (FRA) M40 (+)
8293 3:53:41 Dordain Jean Jacques (FRA) M42 (+)
8307 3:53:45 Richet Sylvain (FRA) M32 (+)
8331 3:53:49 Raynaud Jean Marie (FRA) M52 (+)
8337 3:53:52 Fauconnier Daniel (FRA) M44 (+)
8338 3:53:52 Lavigne Guy (FRA) M32 (+)
8339 3:53:52 Hellio Laurent (FRA) M24 (+)
8343 3:53:52 Vermont Bertrand (FRA) M32 (+)
8379 3:54:00 Beuzeville Yann (FRA) M44 (+)
8403 3:54:04 Mariani Dominique (FRA) F34 (+)
8404 3:54:04 Lauro Erick (FRA) M31 (+)
8424 3:54:09 Brangeon Rene (FRA) M46 (+)
8450 3:54:16 Plaza Jean-manuel (FRA) M36 (+)
8463 3:54:20 Caldin Jean Pierre (FRA) M44 (+)
8479 3:54:23 Dalayrac Moise (FRA) M27 (+)
8537 3:54:35 Dupouy Christian (FRA) M27 (+)
8553 3:54:38 Cauvin Jean Luc (FRA) M35 (+)
8557 3:54:39 Dechavanne Roger (FRA) M52 (+)
8560 3:54:40 Boursette Jean-pierre (FRA) M45 (+)
8580 3:54:45 Susini Christian (FRA) M41 (+)
8602 3:54:53 Pean Catherine (FRA) F36 (+)
8623 3:54:58 Rosset Roger (FRA) M53 (+)
8637 3:55:01 Laroche Patrick (FRA) M46 (+)
8641 3:55:03 Potiez Janick (FRA) M27 (+)
8642 3:55:03 Louart Michel (FRA) M32 (+)
8651 3:55:05 Rodolphe Daniel (FRA) M50 (+)
8653 3:55:06 Domenech Jean Michel (FRA) M41 (+)
8668 3:55:11 Ghirardi Claude (FRA) M46 (+)
8680 3:55:15 Guiraudios Jean (FRA) M40 (+)
8719 3:55:24 Hirtz Henri Raymond (FRA) M51 (+)
8727 3:55:25 Leobon Nicolas (FRA) M22 (+)
8728 3:55:25 Pelegrin Michel (FRA) M38 (+)
8759 3:55:33 Grakge Joseph (FRA) M45 (+)
8760 3:55:33 Lefaye Paul (FRA) M58 (+)
8764 3:55:34 Pignot Michel (FRA) M50 (+)
8765 3:55:34 Renaudin Eliane (FRA) F50 (+)
8771 3:55:36 Goudard Jacques (FRA) M50 (+)
8775 3:55:37 Michaut Hubert (FRA) M50 (+)
8777 3:55:38 Demetriades Dominique (FRA) M38 (+)
8787 3:55:41 Tasset Philippe (FRA) M50 (+)
8794 3:55:42 Gras Julien (FRA) M41 (+)
8816 3:55:48 Lopez Pierre (FRA) M35 (+)
8822 3:55:49 Brule Evelyne (FRA) F37 (+)
8830 3:55:51 Lemiere Jean-michel (FRA) M33 (+)
8832 3:55:52 Guibbert Marcel (FRA) M40 (+)
8834 3:55:53 Vassas Raymonde (FRA) F42 (+)
8856 3:55:59 Hintze Willy (FRA) M51 (+)
8859 3:56:00 Ganzin Alain (FRA) M40 (+)
8915 3:56:17 Puech Bernard (FRA) M36 (+)
8926 3:56:20 Kubaski Gilbert (FRA) M38 (+)
8931 3:56:21 Trancon Gerard (FRA) M44 (+)
8946 3:56:24 Engelhart Christine (FRA) F39 (+)
8952 3:56:25 Jaussiomme Claude (FRA) M40 (+)
8973 3:56:29 Villard Gilles (FRA) M30 (+)
8988 3:56:31 Roig Brigitte (FRA) F32 (+)
8994 3:56:33 George Jean-pierre (FRA) M41 (+)
9017 3:56:40 Bourdoncle Jacques (FRA) M47 (+)
9023 3:56:41 Avanturier Aime (FRA) M45 (+)
9036 3:56:45 Neusy Dominique (FRA) M46 (+)
9039 3:56:46 Voinot Alain (FRA) M42 (+)
9069 3:56:53 Ramon Bernard (FRA) M42 (+)
9101 3:57:02 Auger Denis (FRA) M31 (+)
9112 3:57:04 Cabrera Angel (FRA) M53 (+)
9113 3:57:04 Dahan Georges (FRA) M37 (+)
9116 3:57:05 Borello Baptistin (FRA) M56 (+)
9141 3:57:10 Clairici Raoul (FRA) M32 (+)
9160 3:57:16 Saudo Françoise (FRA) F37 (+)
9172 3:57:19 Arfi Thierry (FRA) M33 (+)
9206 3:57:24 Cote Dernier Jean Marie (FRA) M34 (+)
9214 3:57:27 Bre Bernard (FRA) M45 (+)
9220 3:57:29 Lecunff Daniel (FRA) M40 (+)
9236 3:57:32 Mazaks Christian (FRA) M35 (+)
9242 3:57:35 Cliche Joel (FRA) M38 (+)
9244 3:57:36 Lemoine Bernard (FRA) M37 (+)
9245 3:57:36 Choteau François (FRA) M24 (+)
9247 3:57:36 Zemori Jacques (FRA) M38 (+)
9251 3:57:37 Flaud François (FRA) M41 (+)
9258 3:57:39 Chapelle Marcel (FRA) M55 (+)
9283 3:57:45 Goret Betty (FRA) F39 (+)
9291 3:57:48 Robin Jacques (FRA) M44 (+)
9297 3:57:49 Leuraud Annick (FRA) F45 (+)
9298 3:57:49 Bourry Gerard (FRA) M62 (+)
9320 3:57:53 Geffrou Evelyne (FRA) F37 (+)
9325 3:57:54 Dumez Michel (FRA) M37 (+)
9331 3:57:55 Dubia Maurille (FRA) M42 (+)
9348 3:57:59 Milcendeau Fabrice (FRA) M29 (+)
9381 3:58:12 Brunier Michel (FRA) M51 (+)
9396 3:58:16 Seytre Gilles (FRA) M28 (+)
9421 3:58:25 Chalmont Jean-louis (FRA) M45 (+)
9434 3:58:28 Sade Roger (FRA) M45 (+)
9437 3:58:30 Delaunay François (FRA) M43 (+)
9444 3:58:31 Bourgin Rene (FRA) M32 (+)
9469 3:58:37 Nadier Odile (FRA) F27 (+)
9472 3:58:38 Cantegreil Jacques (FRA) M32 (+)
9487 3:58:41 Rejaud Gilles (FRA) M27 (+)
9492 3:58:42 Revenu Pascale (FRA) F39 (+)
9497 3:58:42 Boisselier Pierre (FRA) M37 (+)
9503 3:58:43 Regincos Serge (FRA) M45 (+)
9515 3:58:45 Pujol Louis (FRA) M28 (+)
9521 3:58:45 Renault Jean-claude (FRA) M52 (+)
9532 3:58:48 Leon Philippe (FRA) M50 (+)
9542 3:58:50 Quaquin Pierre (FRA) M39 (+)
9570 3:58:56 Tremon Alain (FRA) M40 (+)
9576 3:58:58 Clemot Jean Claude (FRA) M45 (+)
9582 3:59:00 Malibeaux Erik (FRA) M30 (+)
9589 3:59:02 Mahaud Daniel (FRA) M55 (+)
9591 3:59:02 Mahaud Stephane (FRA) M25 (+)
9594 3:59:03 Schneider Guy (FRA) M25 (+)
9636 3:59:12 Terrade Pascal (FRA) M31 (+)
9659 3:59:16 Noury Gilles (FRA) M36 (+)
9688 3:59:21 Leveau Jean-paul (FRA) M41 (+)
9701 3:59:24 Trummer Jean-pierre (FRA) M37 (+)
9714 3:59:26 Guichard Jean (FRA) M38 (+)
9727 3:59:28 Blanchard Jean (FRA) M31 (+)
9749 3:59:34 Baron Bruno (FRA) M40 (+)
9755 3:59:36 Altroff Claude (FRA) M39 (+)
9791 3:59:47 Bazoge Bernard (FRA) M59 (+)
9802 3:59:49 Russo Muriel (FRA) F29 (+)
9810 3:59:51 Lefevre Yolande (FRA) F38 (+)
9815 3:59:51 Autret Gisele (FRA) F44 (+)
9820 3:59:52 Lassus Bernard (FRA) M48 (+)
9828 3:59:53 Beaudet Guy (FRA) M32 (+)
9835 3:59:55 Salon Gilbert (FRA) M44 (+)
9842 3:59:56 Legendre Philippe (FRA) M29 (+)
9843 3:59:57 Mercey Jacques (FRA) M47 (+)
9863 4:00:02 Loock François (FRA) M35 (+)
9864 4:00:02 Van De Casteele Jean Marie (FRA) M37 (+)
9866 4:00:03 Kusosky Stephane (FRA) M24 (+)
9869 4:00:04 Sinz Joel (FRA) M53 (+)
9889 4:00:11 Dray Antoine (FRA) M42 (+)
9890 4:00:11 Rochelle Francis (FRA) M42 (+)
9905 4:00:15 Donnadieu Bernard (FRA) M27 (+)
9915 4:00:16 Revenu Alix (FRA) F42 (+)
9916 4:00:17 Morel William (FRA) M40 (+)
9920 4:00:18 Fruytier Christian (FRA) M46 (+)
9935 4:00:22 Beyls Jehanne (FRA) F40 (+)
9949 4:00:29 Converset Michel (FRA) M42 (+)
9953 4:00:30 Kerdevez Robert (FRA) M58 (+)
9964 4:00:32 Gasquet Frank (FRA) M31 (+)
9967 4:00:33 Gay Jean-claude (FRA) M37 (+)
9968 4:00:33 Larosa Pierre (FRA) M33 (+)
9972 4:00:34 Hernandez Isaac (FRA) M45 (+)
9979 4:00:36 Oreggia Claude (FRA) M46 (+)
9983 4:00:37 Flouquet Christiane (FRA) F50 (+)
9992 4:00:38 Buono Denis (FRA) M33 (+)
10001 4:00:40 Huchet Jean-pierre (FRA) M28 (+)
10009 4:00:42 Chevalier Jean Luc (FRA) M34 (+)
10018 4:00:46 Roussin Jean (FRA) M49 (+)
10019 4:00:47 Graindorge Claude (FRA) M46 (+)
10024 4:00:49 Heurtault Marc (FRA) V1M/47 (+)
10026 4:00:50 Ruff Denis (FRA) M38 (+)
10031 4:00:52 Ganansia Alain (FRA) M24 (+)
10036 4:00:55 Louradour Daniel (FRA) M39 (+)
10042 4:00:57 Lomberget Didier (FRA) M38 (+)
10062 4:01:05 Dangreaux Daniel (FRA) M48 (+)
10085 4:01:12 Rocchio Anne Marie (FRA) F27 (+)
10094 4:01:16 Lejeune Francis (FRA) M41 (+)
10097 4:01:18 Derobert Philippe (FRA) M38 (+)
10135 4:01:31 Ribola Charles (FRA) M50 (+)
10146 4:01:36 Rasmussen Esnar (FRA) M50 (+)
10147 4:01:36 Belbeze Gerard (FRA) M24 (+)
10151 4:01:37 Rocheteau Patrick (FRA) M33 (+)
10152 4:01:38 Vienot Philippe (FRA) M37 (+)
10166 4:01:43 Hau Alain (FRA) M42 (+)
10167 4:01:43 Beaujouan Maurice (FRA) M51 (+)
10176 4:01:45 Louvet Jean-pierre (FRA) M36 (+)
10189 4:01:50 Arbessier Robert (FRA) M34 (+)
10190 4:01:50 Crouhy Michel (FRA) M44 (+)
10200 4:01:56 Evain Roland (FRA) M31 (+)
10201 4:01:56 Dalayrac Daniel (FRA) M25 (+)
10209 4:02:00 Martin Michel (FRA) M36 (+)
10210 4:02:00 Houee Alain (FRA) M30 (+)
10227 4:02:03 Burdet Robert (FRA) M37 (+)
10248 4:02:11 Giampalmo Giuseppe (FRA) M50 (+)
10264 4:02:17 Vitrat Fabrice (FRA) M23 (+)
10289 4:02:29 Kentzinger Martine (FRA) F39 (+)
10298 4:02:31 Masson Philippe (FRA) M37 (+)
10318 4:02:38 Koler Tony (FRA) M28 (+)
10319 4:02:38 Rouault Eric (FRA) M31 (+)
10322 4:02:40 Daniel Philippe (FRA) M48 (+)
10327 4:02:43 Thiery Serge (FRA) M38 (+)
10331 4:02:44 Valente Enzo (FRA) M37 (+)
10338 4:02:47 Bos Corinne (FRA) F20 (+)
10345 4:02:50 Warluzel Jacques (FRA) M42 (+)
10412 4:02:56 Boulade Nadine (FRA) F33 (+)
10420 4:02:58 Laurent Maurice (FRA) M38 (+)
10444 4:03:04 Delaunay Jean Pascal (FRA) M29 (+)
10446 4:03:04 Barret Jean Paul (FRA) M40 (+)
10453 4:03:06 Dubois Jean-louis (FRA) M35 (+)
10454 4:03:06 Chatenie Charles (FRA) M52 (+)
10466 4:03:09 Mangez Bruno (FRA) M25 (+)
10468 4:03:10 Cornolle Jean Pierre (FRA) M31 (+)
10480 4:03:14 Deroncy Herve (FRA) M31 (+)
10490 4:03:16 Exposito Jean (FRA) M46 (+)
10504 4:03:19 Dujarry Delort Roger (FRA) M46 (+)
10511 4:03:21 Blanchard Paul (FRA) M54 (+)
10516 4:03:22 Grouchy Michel (FRA) M41 (+)
10520 4:03:25 Ibanez Olivier (FRA) M23 (+)
10546 4:03:33 Pasquier Daniel (FRA) M41 (+)
10557 4:03:39 Roussel Jean-luc (FRA) M34 (+)
10561 4:03:41 Bonnel Rene (FRA) M38 (+)
10588 4:03:52 Blond Luc (FRA) M30 (+)
10607 4:03:57 Golfier Alain (FRA) M40 (+)
10627 4:04:01 Nanot Jacques (FRA) M51 (+)
10642 4:04:08 Fabre Jean Claude (FRA) M50 (+)
10647 4:04:09 Philip Gerard (FRA) M43 (+)
10656 4:04:12 Folie-desjardins Rene (FRA) M54 (+)
10687 4:04:25 Durand Roland (FRA) M32 (+)
10690 4:04:26 Viaouet Joel (FRA) M36 (+)
10695 4:04:27 Lunati Herve (FRA) M40 (+)
10701 4:04:30 Beljambe Michel (FRA) M46 (+)
10702 4:04:30 Peugnet Jean-pierre (FRA) M41 (+)
10718 4:04:35 Schimberg Bruno (FRA) M30 (+)
10733 4:04:39 Rigbourg Philippe (FRA) M24 (+)
10737 4:04:40 Arbanese Jerome (FRA) M30 (+)
10738 4:04:40 Orieux Robert (FRA) M47 (+)
10742 4:04:41 Hermerel Thierry (FRA) M32 (+)
10744 4:04:41 Pagniez Michel (FRA) M35 (+)
10763 4:04:45 Refouvelet Paule (FRA) F38 (+)
10771 4:04:47 Fitoussi François (FRA) M42 (+)
10792 4:04:54 Deleotard Laurent (FRA) M39 (+)
10807 4:04:56 Lelez Jean-jacques (FRA) M38 (+)
10828 4:05:02 Disarbois Jean (FRA) M42 (+)
10835 4:05:06 Guillet Jean-pierre (FRA) M50 (+)
10859 4:05:17 Lacroix Brigitte (FRA) F30 (+)
10903 4:05:31 Ferhi Mouldi (FRA) M42 (+)
10915 4:05:36 Perrette Patrice (FRA) M35 (+)
10930 4:05:44 Maurer Denis (FRA) M33 (+)
10935 4:05:46 Leger Philippe (FRA) M32 (+)
10951 4:05:49 Artero Christian (FRA) M49 (+)
10959 4:05:52 Binet Jean (FRA) M43 (+)
10986 4:05:59 Castagne Jean (FRA) M51 (+)
10992 4:06:00 Caquant Francis (FRA) M42 (+)
10994 4:06:01 Colonna Pierre (FRA) M36 (+)
11022 4:06:10 Coutard Vincent (FRA) M27 (+)
11024 4:06:10 Leotin Michel (FRA) M41 (+)
11052 4:06:19 Pancrazi Nicole (FRA) F47 (+)
11053 4:06:19 Pancrazi Jacques (FRA) M47 (+)
11060 4:06:22 Tusar Eric (FRA) M28 (+)
11077 4:06:32 Blachere Michele (FRA) F42 (+)
11083 4:06:35 Blin Joseph (FRA) M60 (+)
11090 4:06:38 Delcroix Christian (FRA) M41 (+)
11099 4:06:41 Bray Marie Therese (FRA) F45 (+)
11106 4:06:43 Dutertre Gilles (FRA) M39 (+)
11117 4:06:45 Chaumette Paul (FRA) M58 (+)
11122 4:06:46 Saidi Christian (FRA) M40 (+)
11125 4:06:47 Haugland Inger (FRA) F37 (+)
11128 4:06:48 Maquet Philippe (FRA) M25 (+)
11176 4:07:03 Guibourg Alain (FRA) M31 (+)
11218 4:07:17 Matheron Joel (FRA) M32 (+)
11223 4:07:18 Lariviere François (FRA) M26 (+)
11232 4:07:20 Jourdan Brigitte (FRA) F38 (+)
11235 4:07:22 Martineau Gilles (FRA) M37 (+)
11243 4:07:25 Monzerian Miran (FRA) M43 (+)
11244 4:07:25 Verger Christian (FRA) M42 (+)
11246 4:07:25 Barret Yannick (FRA) M42 (+)
11248 4:07:26 Touniaire Maurice (FRA) M59 (+)
11249 4:07:26 Klein Pascal (FRA) M27 (+)
11250 4:07:26 Sicher Didier (FRA) M34 (+)
11259 4:07:30 Andries Danielle (FRA) F41 (+)
11265 4:07:32 Simonin Marc (FRA) M43 (+)
11279 4:07:35 Pedroletti Michel (FRA) M38 (+)
11280 4:07:36 Janft Waltraud (FRA) F45 (+)
11290 4:07:39 Thomas Michelle (FRA) F45 (+)
11297 4:07:40 Carboni Jacques (FRA) M32 (+)
11298 4:07:40 Ghestem Georgette (FRA) F46 (+)
11318 4:07:51 Carvin Jean-pierre (FRA) M40 (+)
11334 4:07:55 Panthene Michel (FRA) M41 (+)
11336 4:07:56 Salomone Rene (FRA) M41 (+)
11377 4:08:10 Louvat Jean-jacques (FRA) M35 (+)
11397 4:08:14 Couespel Patrice (FRA) M23 (+)
11398 4:08:14 Edouard Suchy (FRA) M61 (+)
11441 4:08:27 Bernert Michel (FRA) M46 (+)
11446 4:08:30 Badiou Michel (FRA) M40 (+)
11457 4:08:33 Callard Dominique (FRA) M35 (+)
11470 4:08:37 Monnet Michele (FRA) F34 (+)
11477 4:08:39 Chauveaux Dominique (FRA) M40 (+)
11491 4:08:45 Noye Bernard (FRA) M33 (+)
11496 4:08:47 Gore Alain (FRA) M24 (+)
11522 4:08:54 Godard Andre (FRA) M52 (+)
11533 4:08:57 Gouaux Philippe (FRA) M31 (+)
11548 4:09:01 Oddou Daniel (FRA) M41 (+)
11571 4:09:09 Kern Marc (FRA) M39 (+)
11611 4:09:22 Torghele Beatrice (FRA) F36 (+)
11612 4:09:22 Babin-helene Gerard (FRA) M37 (+)
11622 4:09:26 Hardy Monique (FRA) F36 (+)
11624 4:09:26 Terras Danielle (FRA) F38 (+)
11625 4:09:26 Bourgin Monique (FRA) F34 (+)
11630 4:09:28 Sanguy Roland (FRA) M39 (+)
11640 4:09:31 Magnier Laurent (FRA) M29 (+)
11662 4:09:41 Westerfeld Wilhem (FRA) M44 (+)
11668 4:09:43 Fourcade Alain (FRA) M38 (+)
11672 4:09:43 Ne Gerard (FRA) M47 (+)
11675 4:09:46 Dubost Michel (FRA) M28 (+)
11680 4:09:47 Subira Christian (FRA) M38 (+)
11695 4:09:53 Gigout Robert (FRA) M27 (+)
11697 4:09:53 Rousseau Marie-helene (FRA) F25 (+)
11706 4:09:56 Constans Remi (FRA) M41 (+)
11709 4:09:56 Gremmel Bernard (FRA) M23 (+)
11714 4:09:57 Fontaine Jeanick (FRA) M38 (+)
11715 4:09:57 Nieto Joaquin (FRA) M33 (+)
11717 4:09:58 Baty Pierre (FRA) M59 (+)
11722 4:09:59 Lasserre Andrews (FRA) M64 (+)
11793 4:10:22 Prie Claudine (FRA) F41 (+)
11811 4:10:27 Dupin Roger (FRA) M37 (+)
11813 4:10:27 Colibert Jacques (FRA) M40 (+)
11838 4:10:34 Vigne Robert (FRA) M64 (+)
11893 4:10:48 Eysseric Jean-marc (FRA) M24 (+)
11907 4:10:52 Borghese Raphael (FRA) M56 (+)
11910 4:10:53 Aguettaz Michel (FRA) M49 (+)
11912 4:10:53 Frappesauce Remy (FRA) M35 (+)
11915 4:10:54 Durand Jean Louis (FRA) M37 (+)
11917 4:10:55 Giafferi Anne (FRA) F37 (+)
11930 4:10:57 Campens Claude (FRA) M60 (+)
11964 4:11:15 Lamontagne Pierre-marc (FRA) M29 (+)
11975 4:11:20 Hervalet Andre (FRA) M38 (+)
11979 4:11:21 Metzger Gerard (FRA) M43 (+)
11981 4:11:22 Hamard Andre (FRA) M42 (+)
11985 4:11:22 Langer Raymond (FRA) M38 (+)
12006 4:11:27 Talleux Roland (FRA) M64 (+)
12009 4:11:27 Guillaume Christian (FRA) M41 (+)
12022 4:11:31 Fraysse Anny (FRA) F38 (+)
12024 4:11:32 Peron Pierrick (FRA) M36 (+)
12025 4:11:32 Gizard Françoise (FRA) F34 (+)
12028 4:11:32 Lindron Denis (FRA) M33 (+)
12029 4:11:32 Devos Hubert (FRA) M37 (+)
12030 4:11:32 Nocaudie Michel (FRA) M47 (+)
12036 4:11:36 Pecqueraux Michel (FRA) M44 (+)
12053 4:11:40 Gutmann Guy (FRA) M41 (+)
12061 4:11:41 Arquier Claude (FRA) M39 (+)
12073 4:11:44 Leitao Franck (FRA) M24 (+)
12076 4:11:44 Leitao Bernard (FRA) M49 (+)
12103 4:11:50 Spano Andre (FRA) M36 (+)
12104 4:11:50 Bensoussan Albert (FRA) M52 (+)
12107 4:11:53 Juchat Gilles (FRA) M51 (+)
12143 4:12:05 Lullin Monique (FRA) F46 (+)
12170 4:12:13 Ghestem Georges (FRA) M47 (+)
12171 4:12:14 Alex Gilles (FRA) M27 (+)
12173 4:12:15 Robert Jean (FRA) M37 (+)
12182 4:12:17 Ribet Jean Jacques (FRA) M30 (+)
12184 4:12:21 Dessaint Michel (FRA) M46 (+)
12186 4:12:22 Constance Henri (FRA) M53 (+)
12216 4:12:32 Marchand Claude (FRA) M41 (+)
12233 4:12:37 Sublet Michel (FRA) M52 (+)
12242 4:12:38 Brunet Vincent (FRA) M52 (+)
12256 4:12:44 Mandrin Claude (FRA) M44 (+)
12265 4:12:49 Marette Christian (FRA) M44 (+)
12267 4:12:49 Ponseille Max (FRA) M42 (+)
12280 4:12:52 Montagnier Philippe (FRA) M23 (+)
12292 4:12:58 Quignon Jean-marie (FRA) M28 (+)
12294 4:12:59 Touren Dominique (FRA) F41 (+)
12339 4:13:10 Ijjou El Mekki (FRA) M20 (+)
12341 4:13:11 Roland Andre (FRA) M36 (+)
12342 4:13:11 Cristol Tony (FRA) M44 (+)
12377 4:13:20 Glemet Francis (FRA) M37 (+)
12384 4:13:22 Delort Patrick (FRA) M32 (+)
12411 4:13:31 Dupouy Bernard (FRA) M37 (+)
12416 4:13:34 Sicurani Danielle (FRA) F43 (+)
12430 4:13:37 Nicolas Jacky (FRA) M39 (+)
12433 4:13:38 Amsellem Jacques (FRA) M32 (+)
12434 4:13:38 Legac Martial (FRA) M35 (+)
12441 4:13:39 Anxionnaz M-françoise (FRA) F33 (+)
12442 4:13:39 Anxionnaz Michele (FRA) F37 (+)
12496 4:13:58 Henrio Guy (FRA) M44 (+)
12502 4:14:00 Lemaire Luc (FRA) M40 (+)
12518 4:14:03 Jolimet-ruzic Christiane (FRA) F45 (+)
12523 4:14:04 Beauverger Bernard (FRA) M46 (+)
12524 4:14:05 Giraudeau Alain (FRA) M40 (+)
12527 4:14:06 Bodet Michel (FRA) M56 (+)
12538 4:14:10 Tanguy Rene (FRA) M45 (+)
12552 4:14:15 Flot Aude (FRA) F38 (+)
12555 4:14:16 Lancel Danielle (FRA) F46 (+)
12559 4:14:17 Mannoni Pierre (FRA) M46 (+)
12568 4:14:20 Wucher Patrice (FRA) M29 (+)
12594 4:14:27 Girard Claude (FRA) M41 (+)
12604 4:14:29 Rey Jean (FRA) M45 (+)
12631 4:14:38 Glories Benoit (FRA) M44 (+)
12632 4:14:38 Fifi Joelle (FRA) F26 (+)
12645 4:14:43 Bernard Eric (FRA) M24 (+)
12665 4:14:52 Piriou Jean-claude (FRA) M30 (+)
12666 4:14:52 Forget Daniel (FRA) M35 (+)
12702 4:15:01 Camboulives Jean Marie (FRA) M45 (+)
12708 4:15:04 Scotte Annie (FRA) F40 (+)
12728 4:15:10 Dugue Guy (FRA) M42 (+)
12730 4:15:10 Dugue Jocelyne (FRA) F31 (+)
12731 4:15:10 Coursier Alain (FRA) M31 (+)
12735 4:15:11 Rouin Jean Claude (FRA) M48 (+)
12738 4:15:13 Dassie Philippe (FRA) M37 (+)
12752 4:15:21 Masala Catherine (FRA) F19 (+)
12765 4:15:24 Amiel Pierre (FRA) M41 (+)
12769 4:15:25 Lacoste Pierre (FRA) M54 (+)
12805 4:15:35 Planeille Rene (FRA) M48 (+)
12822 4:15:41 Caille Jacky (FRA) M33 (+)
12828 4:15:43 Bernard Josee (FRA) F37 (+)
12845 4:15:49 Roquin Christian (FRA) M42 (+)
12862 4:15:53 Paillisse Jean-françois (FRA) M35 (+)
12877 4:15:59 Hall Brett (FRA) M25 (+)
12927 4:16:13 Bastard Jean-luc (FRA) M32 (+)
12928 4:16:13 Dabrainville Remy (FRA) M31 (+)
12946 4:16:17 Palazy Gilles (FRA) M37 (+)
12949 4:16:17 Fertil Eric (FRA) M31 (+)
12968 4:16:22 Marcenac Xavier (FRA) M19 (+)
12970 4:16:22 Hucher Jean-pierre (FRA) M47 (+)
12979 4:16:26 Pirault William (FRA) M34 (+)
12984 4:16:27 Fabre Julien (FRA) M62 (+)
13026 4:16:41 Beaumont Christine (FRA) F24 (+)
13056 4:16:49 Marest Michel (FRA) M48 (+)
13062 4:16:52 Vuillard Daniel (FRA) M41 (+)
13066 4:16:53 Szyjewski Andre (FRA) M59 (+)
13070 4:16:54 Fernandez Anore (FRA) M48 (+)
13073 4:16:55 Souyris Jean (FRA) M51 (+)
13077 4:16:56 Bihoue Guy (FRA) F26 (+)
13088 4:17:00 Malbec De Breuil Claudine (FRA) F34 (+)
13104 4:17:06 Monet Didier (FRA) M31 (+)
13112 4:17:10 Damarin Louis (FRA) M42 (+)
13115 4:17:11 Lanes Antoine (FRA) M21 (+)
13116 4:17:11 Puyfoulhoux J-françois (FRA) M35 (+)
13153 4:17:25 Mitrasouf Charles (FRA) M38 (+)
13173 4:17:32 Bayard Jacques (FRA) M45 (+)
13184 4:17:36 Laube Palmyre (FRA) F47 (+)
13189 4:17:38 Revestat Christian (FRA) M33 (+)
13196 4:17:40 Desmazieres Helen (FRA) F36 (+)
13203 4:17:42 Aubert Eliane (FRA) F40 (+)
13214 4:17:46 Lievre Daniel (FRA) M47 (+)
13217 4:17:48 Allet Roger (FRA) M31 (+)
13218 4:17:48 Vaillant Eric (FRA) M24 (+)
13219 4:17:48 Ribet Marc (FRA) M33 (+)
13225 4:17:50 Leberre Daniel (FRA) M35 (+)
13252 4:18:05 Franck Darribau (FRA) M22 (+)
13289 4:18:20 Bazantay Loic (FRA) M48 (+)
13302 4:18:24 Vermeersch Pierre (FRA) M43 (+)
13325 4:18:30 Paudos Christian (FRA) M27 (+)
13326 4:18:31 Barrabes Michel (FRA) M37 (+)
13333 4:18:31 Hoyau Mauricette (FRA) F50 (+)
13342 4:18:34 Matras Louis (FRA) M51 (+)
13345 4:18:36 Trollier Josette (FRA) F33 (+)
13389 4:18:51 Garrigue Yves (FRA) M36 (+)
13405 4:18:56 Cortina Jean Claude (FRA) M40 (+)
13424 4:19:03 Derosa Melchior (FRA) M31 (+)
13428 4:19:05 Desvignes Gerard (FRA) M44 (+)
13438 4:19:06 Lahousse Alain (FRA) M29 (+)
13447 4:19:09 Massaud Huguette (FRA) F49 (+)
13464 4:19:15 Blois Dominique (FRA) M35 (+)
13465 4:19:17 Hardi Jean (FRA) M41 (+)
13467 4:19:17 Giordano Gerard (FRA) M32 (+)
13508 4:19:25 Faure Robert (FRA) M57 (+)
13520 4:19:29 Widmer Elisabeth (FRA) F48 (+)
13534 4:19:35 Castignolles Anne (FRA) F39 (+)
13567 4:19:42 Perigueux Andre (FRA) M53 (+)
13621 4:19:59 Mechali Daniele (FRA) F41 (+)
13625 4:19:59 Rey Richard (FRA) M31 (+)
13628 4:20:00 Talbot Francis (FRA) M31 (+)
13631 4:20:00 Gougnard Michel (FRA) M35 (+)
13648 4:20:05 Curings Patrick (FRA) M51 (+)
13659 4:20:07 Parisot Frederic (FRA) M31 (+)
13662 4:20:10 Talleux Françoise (FRA) F34 (+)
13675 4:20:14 Brunel Michel (FRA) M46 (+)
13679 4:20:16 Lartiges Andre (FRA) M48 (+)
13687 4:20:19 Malet Jean (FRA) M61 (+)
13702 4:20:21 Laverdure Jeanine (FRA) F38 (+)
13715 4:20:24 Marchat Olivier (FRA) M39 (+)
13722 4:20:26 Versini Campi Jean-pierre (FRA) M48 (+)
13723 4:20:26 Prive Nicole (FRA) F34 (+)
13725 4:20:26 Vieille Marcel (FRA) M46 (+)
13731 4:20:27 Lombardo Yves (FRA) M35 (+)
13735 4:20:28 Ledervoet Gerard (FRA) M40 (+)
13759 4:20:37 Magdelaine Benedicte (FRA) F34 (+)
13772 4:20:42 Mantelin Gerard (FRA) M40 (+)
13781 4:20:45 Lemen Daniel (FRA) M50 (+)
13783 4:20:47 Morin Frederic (FRA) M27 (+)
13802 4:20:54 Burlaud Daniel (FRA) M45 (+)
13803 4:20:54 Jacquiot Roland (FRA) M37 (+)
13806 4:20:55 Masbou Jean Claude (FRA) M46 (+)
13825 4:21:01 Bezard Jean-marie (FRA) M52 (+)
13828 4:21:02 Morin Patrick (FRA) M30 (+)
13847 4:21:08 Ollier Pierre-jean (FRA) M31 (+)
13879 4:21:17 Marinier Maryse (FRA) F42 (+)
13888 4:21:21 Michel Gerard (FRA) M30 (+)
13901 4:21:26 Bonini Claude (FRA) M40 (+)
13902 4:21:26 Hoel Jean-claude (FRA) M36 (+)
13917 4:21:32 Norre Jean-louis (FRA) M40 (+)
13939 4:21:38 Thierry Brugeas (FRA) M35 (+)
13948 4:21:41 Tessier Eric (FRA) M29 (+)
13951 4:21:42 Kuziora Jean-pierre (FRA) M45 (+)
13960 4:21:46 Sztulman Henri (FRA) M49 (+)
13988 4:21:59 Juteau Bernard (FRA) M42 (+)
14007 4:22:05 Monnoyeur Denis (FRA) M35 (+)
14033 4:22:14 Ferret Jean-marcel (FRA) M40 (+)
14054 4:22:21 Dieuzaide Gerard (FRA) M39 (+)
14066 4:22:24 Chanson Alain (FRA) M36 (+)
14068 4:22:24 Wormser Roger (FRA) M65 (+)
14089 4:22:32 Arguence Marc (FRA) M34 (+)
14095 4:22:34 Elkaim Albert (FRA) M55 (+)
14096 4:22:34 Ledoyen Michel (FRA) M40 (+)
14113 4:22:43 Collignon Claude (FRA) M52 (+)
14119 4:22:45 Bensakkoun Emile Andre (FRA) M35 (+)
14126 4:22:47 Goudard Maryse (FRA) F46 (+)
14127 4:22:47 Py Mireille (FRA) F40 (+)
14129 4:22:50 Guillerm Catherine (FRA) F37 (+)
14134 4:22:51 Laffon Jean (FRA) M70 (+)
14140 4:22:54 Monnoyeur Baudouin (FRA) M39 (+)
14152 4:22:59 Lastmann Jean-claude (FRA) M35 (+)
14189 4:23:12 Weinachter Claude (FRA) M40 (+)
14213 4:23:21 Tessonnier Marie-luce (FRA) F27 (+)
14222 4:23:23 Sempe Pierre (FRA) M52 (+)
14234 4:23:25 Mandouze Dominique (FRA) M35 (+)
14243 4:23:27 Goddard Robert (FRA) M28 (+)
14247 4:23:28 Bloch Noel (FRA) M44 (+)
14251 4:23:29 Rabeuf Thierry (FRA) M30 (+)
14259 4:23:32 Leroy Jean Pierre (FRA) M43 (+)
14266 4:23:35 Bonnet Françoise (FRA) F25 (+)
14287 4:23:40 Niarfait Marcel (FRA) M46 (+)
14288 4:23:41 Jouffroy Alain (FRA) M33 (+)
14291 4:23:43 Fischer Antoine (FRA) M33 (+)
14295 4:23:45 Dupuis Claude (FRA) F44 (+)
14317 4:23:49 Marcenac Pierre (FRA) M42 (+)
14328 4:23:54 Garcia Remy (FRA) M44 (+)
14331 4:23:55 Annest Pierre (FRA) M52 (+)
14340 4:23:58 Keller Frank (FRA) M38 (+)
14364 4:24:08 Delorge Jean-claude (FRA) M48 (+)
14365 4:24:08 Vian Alex (FRA) M40 (+)
14376 4:24:12 Darras Claude (FRA) M43 (+)
14384 4:24:16 Rouviere Dominique (FRA) F32 (+)
14388 4:24:18 Raillon Aime (FRA) M45 (+)
14390 4:24:18 Guerin Jean-pierre (FRA) M45 (+)
14396 4:24:20 Dupre Daniel (FRA) M25 (+)
14401 4:24:21 Monnet Daniel (FRA) M36 (+)
14408 4:24:22 Aubertin Subala (FRA) F35 (+)
14448 4:24:34 Regincos Katy (FRA) F35 (+)
14453 4:24:36 Monnoyeur Eric (FRA) M36 (+)
14480 4:24:45 Gibralter Robert (FRA) M35 (+)
14528 4:25:01 Oizel Henri (FRA) M40 (+)
14531 4:25:02 Assenat Anne-marie (FRA) F34 (+)
14532 4:25:02 Reboul Rene (FRA) M31 (+)
14548 4:25:06 Dupont-ferrier Claude (FRA) M50 (+)
14549 4:25:06 Chammerian Paul Marc (FRA) M40 (+)
14576 4:25:15 Lebihan Michel (FRA) M48 (+)
14578 4:25:16 Ract Bernard (FRA) M51 (+)
14589 4:25:21 Blondet Pierre (FRA) M41 (+)
14605 4:25:26 Marazanoff Daniel (FRA) M46 (+)
14613 4:25:28 Delattre Roger (FRA) M47 (+)
14614 4:25:28 Leclaire William (FRA) M50 (+)
14616 4:25:29 Leconte Alain (FRA) M43 (+)
14618 4:25:30 Orliaguet Gerard (FRA) M40 (+)
14639 4:25:36 Crepin Patrice (FRA) M31 (+)
14642 4:25:36 Pezzatini Louis (FRA) M44 (+)
14647 4:25:38 Guerin Arlette (FRA) F46 (+)
14688 4:25:52 Collignon Arlette (FRA) F51 (+)
14692 4:25:54 Violland Maurice (FRA) M66 (+)
14695 4:25:54 Auger Jean-michel (FRA) M27 (+)
14700 4:25:55 Vassas Marcel (FRA) M50 (+)
14707 4:25:57 Ducaurroy Bernard (FRA) M39 (+)
14739 4:26:05 Robic Bruno (FRA) M31 (+)
14770 4:26:15 Arnould Didier (FRA) M32 (+)
14771 4:26:16 Faivre Rose Marie (FRA) F39 (+)
14772 4:26:16 Bernier Jean-marie (FRA) M33 (+)
14791 4:26:22 Tomio Nicole (FRA) F40 (+)
14803 4:26:26 David Serge (FRA) M36 (+)
14830 4:26:39 Chadelas François (FRA) M31 (+)
14842 4:26:43 Fernez Herve (FRA) M40 (+)
14845 4:26:46 Vigreux Michel (FRA) M41 (+)
14859 4:26:50 Autien Michel (FRA) M28 (+)
14860 4:26:50 Fauconnier Jean Luc (FRA) M26 (+)
14865 4:26:51 Job Françoise (FRA) F42 (+)
14895 4:26:59 Volf Marijan (FRA) M51 (+)
14902 4:27:01 Breuille Joana (FRA) F36 (+)
14911 4:27:04 Cordonnier Michel (FRA) M25 (+)
14915 4:27:05 Moueix Christian (FRA) M42 (+)
14919 4:27:07 Bonaventure Bruno (FRA) M28 (+)
14953 4:27:19 Ledoux Pascal (FRA) M26 (+)
14970 4:27:27 Bernard Georges (FRA) M54 (+)
14972 4:27:28 Strzalkowski Christian (FRA) M56 (+)
15000 4:27:38 Sylvain Pierre (FRA) M52 (+)
15029 4:27:47 Derousseaux Max (FRA) M38 (+)
15030 4:27:48 Dauriat Georges (FRA) M50 (+)
15038 4:27:51 Bernard Capmas (FRA) M34 (+)
15040 4:27:52 Guidi Gerard (FRA) M36 (+)
15045 4:27:53 Benferhat Allel (FRA) M25 (+)
15053 4:27:56 Flipo Laurent (FRA) M25 (+)
15061 4:27:58 Bouriau Didier (FRA) M35 (+)
15129 4:28:22 Gineste Yvan (FRA) M32 (+)
15177 4:28:44 Ciercoles Jean-pierre (FRA) M33 (+)
15184 4:28:46 Zoller Bernard (FRA) M50 (+)
15209 4:28:54 Tavernier Jean-claude (FRA) M40 (+)
15238 4:29:05 Berthelot François (FRA) M52 (+)
15239 4:29:05 Berlan Claude (FRA) M52 (+)
15253 4:29:08 Delcour Gerard (FRA) M42 (+)
15280 4:29:19 Kergoat Daniel (FRA) M39 (+)
15304 4:29:26 Becker Robert (FRA) M35 (+)
15306 4:29:27 Coube Jean François (FRA) M40 (+)
15337 4:29:35 Foulquier Claude (FRA) M38 (+)
15413 4:29:57 Bourgarn Patrick (FRA) M34 (+)
15415 4:29:57 Laurent Guy (FRA) M39 (+)
15421 4:29:59 Monnet Yves (FRA) M41 (+)
15439 4:30:11 Lopez Elie (FRA) M42 (+)
15444 4:30:12 Vergnaud Jean-pierre (FRA) M43 (+)
15454 4:30:16 Hardin Richard (FRA) M37 (+)
15481 4:30:27 Croci Patrice (FRA) M35 (+)
15485 4:30:30 Pere Jean Michel (FRA) M41 (+)
15486 4:30:30 Delage Philippe (FRA) M30 (+)
15498 4:30:37 Barrero Lucette (FRA) F47 (+)
15499 4:30:38 Laffont Michel (FRA) M45 (+)
15509 4:30:44 Martin Roger (FRA) M53 (+)
15528 4:30:54 Dimet Thierry (FRA) M30 (+)
15533 4:30:55 Villette Dominique (FRA) F31 (+)
15552 4:31:03 Grimaldi Christian (FRA) M41 (+)
15555 4:31:04 Vernis Jacques (FRA) M58 (+)
15563 4:31:06 Demassia Philippe (FRA) M22 (+)
15590 4:31:17 Ferran Catherine (FRA) F30 (+)
15618 4:31:34 Berquet Michel (FRA) M46 (+)
15629 4:31:37 Bessiere Didier (FRA) M40 (+)
15638 4:31:39 Jaroszek Henri (FRA) M41 (+)
15646 4:31:41 Andreani François (FRA) M38 (+)
15686 4:31:56 Flumian Jean (FRA) M50 (+)
15702 4:32:01 Gaillac Olivier (FRA) M23 (+)
15729 4:32:10 Belin Jacques (FRA) M39 (+)
15791 4:32:38 Robert Pierre (FRA) M32 (+)
15812 4:32:47 Mollard Jean (FRA) M39 (+)
15816 4:32:48 Speranzoni Françoise (FRA) F38 (+)
15818 4:32:48 Ardrit Jean-philippe (FRA) M26 (+)
15823 4:32:50 Lutaud Josee (FRA) F49 (+)
15835 4:32:55 Daoudal Georges (FRA) M35 (+)
15872 4:33:07 Lai Guy (FRA) M40 (+)
15913 4:33:21 Bidet Jacques (FRA) M46 (+)
15938 4:33:31 Busquet Jacques (FRA) M35 (+)
15996 4:33:58 Fontana Denis (FRA) M29 (+)
16005 4:34:02 Dezier François (FRA) M38 (+)
16025 4:34:08 Zaknoune Hamed (FRA) M21 (+)
16027 4:34:09 Gallay Françoise (FRA) F39 (+)
16028 4:34:09 Gaujoux Denise (FRA) F40 (+)
16046 4:34:16 Gendre Gerard (FRA) M43 (+)
16048 4:34:16 Duchier Bernard (FRA) M49 (+)
16050 4:34:16 Puech Samson Pierre (FRA) M40 (+)
16059 4:34:21 Donnedieu Claude (FRA) M53 (+)
16066 4:34:22 Bouvier Ghislaine (FRA) F32 (+)
16082 4:34:27 Taffignon Alain (FRA) M44 (+)
16091 4:34:34 Aubert Jean Pierre (FRA) M47 (+)
16092 4:34:34 Van Trappen Louis (FRA) M45 (+)
16099 4:34:37 Samson Jean-françois (FRA) M51 (+)
16103 4:34:38 Laupin Martine (FRA) F40 (+)
16110 4:34:42 Grenier Colette (FRA) F40 (+)
16162 4:35:00 Richard Gilles (FRA) M29 (+)
16179 4:35:07 Lemoine Jules (FRA) M50 (+)
16186 4:35:10 Asura Alice (FRA) F39 (+)
16197 4:35:11 Jacques Alemanno (FRA) M59 (+)
16199 4:35:12 Decoeur Dany (FRA) M39 (+)
16205 4:35:13 Alcaraz Pierre (FRA) M40 (+)
16237 4:35:24 Lherm Jean Pierre (FRA) M33 (+)
16238 4:35:24 Cueff Emmanuel (FRA) M33 (+)
16390 4:36:22 Judith Philippe (FRA) M60 (+)
16394 4:36:25 Michaut Ginette (FRA) F48 (+)
16400 4:36:26 Huu Henri (FRA) M57 (+)
16452 4:36:45 Ginesy Max (FRA) M31 (+)
16453 4:36:45 Gollino Alain (FRA) M40 (+)
16467 4:36:49 Pihour Daniel (FRA) M46 (+)
16469 4:36:49 Bardosse Jacques (FRA) M42 (+)
16472 4:36:50 Desimone François (FRA) M32 (+)
16486 4:36:58 Joby Rene (FRA) M37 (+)
16495 4:37:00 Guegen Jean (FRA) M56 (+)
16500 4:37:05 Chasseray Chantal (FRA) F38 (+)
16504 4:37:07 Duval Andre (FRA) M39 (+)
16505 4:37:08 Chollet Pascal (FRA) M30 (+)
16550 4:37:31 Beugnon Jacques (FRA) M45 (+)
16566 4:37:37 Lecina Michel (FRA) M36 (+)
16569 4:37:37 Devaux Marc (FRA) M43 (+)
16580 4:37:41 Pierre Gateau (FRA) M45 (+)
16583 4:37:42 Graff Jacques (FRA) M34 (+)
16588 4:37:44 Dadone Claude (FRA) M42 (+)
16591 4:37:46 Hanenon Didier (FRA) M62 (+)
16592 4:37:47 Magerand Christian (FRA) M37 (+)
16594 4:37:47 Leguen Luc (FRA) M32 (+)
16599 4:37:50 Crenes Jean-pierre (FRA) M43 (+)
16601 4:37:51 Divo Daniel (FRA) M49 (+)
16638 4:38:16 Dubois Bernard (FRA) M45 (+)
16709 4:38:45 Delpit Jean (FRA) M56 (+)
16710 4:38:47 Loos Daniel (FRA) M29 (+)
16737 4:39:00 Gaudet Chritian (FRA) M42 (+)
16738 4:39:00 Pillon Lionel (FRA) M42 (+)
16769 4:39:16 Cornacchia Marco (FRA) M40 (+)
16777 4:39:22 Cadel Michel (FRA) M38 (+)
16791 4:39:29 Troadec Jean Claude (FRA) M49 (+)
16795 4:39:30 Vivier Maurice (FRA) M42 (+)
16816 4:39:41 Eyraud Claude (FRA) M47 (+)
16838 4:39:50 Castagne Solange (FRA) F49 (+)
16839 4:39:52 Fleury Philippe (FRA) M49 (+)
16870 4:40:05 Naves Yves (FRA) M53 (+)
16872 4:40:06 Vermast Marie Franco (FRA) F25 (+)
16877 4:40:07 Blanchet Alain (FRA) M41 (+)
16885 4:40:12 Voynnet Michel (FRA) M35 (+)
16904 4:40:21 Gras Christiane (FRA) F42 (+)
16922 4:40:28 Calmes Richard (FRA) M47 (+)
16936 4:40:34 Mons Jacques (FRA) M41 (+)
16939 4:40:36 Pinchedez Alain (FRA) M32 (+)
16947 4:40:38 Gicquere Joel (FRA) M42 (+)
16967 4:40:48 Leboedec Denise (FRA) F49 (+)
16987 4:40:54 Vaglio Paul (FRA) M47 (+)
16991 4:40:56 Loliee Martine (FRA) F41 (+)
17037 4:41:14 Gubbini Monique (FRA) F52 (+)
17043 4:41:17 Lassoued Hamdi (FRA) M20 (+)
17045 4:41:18 Wallet Robert (FRA) M39 (+)
17063 4:41:25 Russo Mario (FRA) M41 (+)
17072 4:41:29 Varin Sylvie (FRA) F34 (+)
17081 4:41:36 Ceynac Dominique (FRA) F40 (+)
17082 4:41:37 Gilles Daniel (FRA) M40 (+)
17084 4:41:37 Ceyrac Paul (FRA) M48 (+)
17094 4:41:43 Fournier Annie (FRA) F36 (+)
17103 4:41:46 Laurent Thierry (FRA) M36 (+)
17124 4:41:56 Vachie Eric (FRA) M25 (+)
17128 4:41:59 Mauthe Marion (FRA) F30 (+)
17156 4:42:07 Tulasme Monique (FRA) F40 (+)
17165 4:42:10 Loizzo Françoise (FRA) F40 (+)
17172 4:42:13 Leydier Regis (FRA) M38 (+)
17211 4:42:33 Rodier Claude (FRA) M54 (+)
17212 4:42:33 Guyot Veronique (FRA) F29 (+)
17250 4:42:54 Bustillo Alain (FRA) M40 (+)
17256 4:42:58 Lot Christian (FRA) M42 (+)
17262 4:43:02 Bluche Gerard (FRA) M45 (+)
17263 4:43:02 Castelnau Patrice (FRA) M42 (+)
17312 4:43:25 Mathieu Roland (FRA) M49 (+)
17358 4:43:45 Bogini Jean Marie (FRA) M30 (+)
17359 4:43:45 Bagi Antoine (FRA) M43 (+)
17362 4:43:47 Dubourg Raymond (FRA) M40 (+)
17363 4:43:47 Prat Michele (FRA) F38 (+)
17365 4:43:48 Girard Raymond (FRA) M59 (+)
17370 4:43:51 Studle Norbert (FRA) M32 (+)
17373 4:43:53 Gerard Jacques (FRA) M41 (+)
17392 4:44:05 Sebag Sabine (FRA) F26 (+)
17446 4:44:35 Folley Michel (FRA) M45 (+)
17486 4:44:49 Duchatel Bernard (FRA) M27 (+)
17499 4:44:56 Tribot Christian (FRA) M36 (+)
17520 4:45:05 François Bruno (FRA) M30 (+)
17523 4:45:06 Vincent Monique (FRA) F40 (+)
17536 4:45:12 Penalva Alain (FRA) M46 (+)
17560 4:45:27 Sefsaf Rabah (FRA) M18 (+)
17582 4:45:37 Cohen Roger (FRA) M59 (+)
17595 4:45:44 Lebihan Jacqueline (FRA) F44 (+)
17616 4:45:55 Favereau Bernard (FRA) M39 (+)
17621 4:45:57 Grimault Marion (FRA) F48 (+)
17635 4:46:02 Lecorre Danielle (FRA) F41 (+)
17653 4:46:09 Lambert Florence (FRA) F23 (+)
17656 4:46:11 Marcart Didier (FRA) M25 (+)
17673 4:46:18 Salzenstein Martine (FRA) F37 (+)
17753 4:46:59 Mazloum Maurice (FRA) M55 (+)
17762 4:47:02 Joly Pierre (FRA) M40 (+)
17764 4:47:04 Dardel Antoine (FRA) M24 (+)
17765 4:47:04 Joly Maria (FRA) F35 (+)
17766 4:47:04 Dardel Christophe (FRA) M28 (+)
17783 4:47:15 Ongaro Franco (FRA) M30 (+)
17804 4:47:23 Renaud Philippe (FRA) M47 (+)
17806 4:47:24 Delahaye Bernard (FRA) M41 (+)
17878 4:47:59 Marion Rene (FRA) M41 (+)
17885 4:48:03 Fougerol Jean Paul (FRA) M44 (+)
17915 4:48:28 Mallet Sylvie (FRA) F32 (+)
17925 4:48:31 Couvreur Didier (FRA) M24 (+)
17932 4:48:37 Bossut Mariane (FRA) F52 (+)
17937 4:48:39 Benchenane Mustapha (FRA) M45 (+)
17949 4:48:42 Gurrere Françoise (FRA) F37 (+)
17954 4:48:44 Nelson Jean (FRA) M26 (+)
17974 4:48:57 Cristini Gilbert (FRA) M39 (+)
17975 4:48:57 Braquet Stephane (FRA) M25 (+)
17983 4:49:02 Mansandre Gaspard (FRA) M42 (+)
18031 4:49:36 Sauvage Jean-philippe (FRA) M33 (+)
18032 4:49:36 Tartour Jean (FRA) M52 (+)
18044 4:49:42 Quagliata Augustin (FRA) M54 (+)
18050 4:49:46 Denis Jacques (FRA) M40 (+)
18057 4:49:48 Moulin Michele (FRA) F41 (+)
18060 4:49:48 Rigout Claude (FRA) M50 (+)
18082 4:49:59 Roche Danielle (FRA) F44 (+)
18092 4:50:04 Quere Sylvie (FRA) F34 (+)
18121 4:50:22 Carteron Patrick (FRA) M38 (+)
18134 4:50:29 Parry Jean-michel (FRA) M48 (+)
18135 4:50:30 Liger Jean-louis (FRA) M50 (+)
18158 4:50:43 Mivielle Jean-claude (FRA) M50 (+)
18165 4:50:44 Bodin Philippe (FRA) M39 (+)
18168 4:50:46 Mercado Chantal (FRA) F37 (+)
18187 4:50:54 Chianese Rene (FRA) M35 (+)
18239 4:51:21 Battistini Robert (FRA) M29 (+)
18247 4:51:25 Georgeon Suzanne (FRA) F28 (+)
18257 4:51:30 Leplouhinec Rene (FRA) M56 (+)
18295 4:51:52 Peyronnet Nathalie (FRA) F23 (+)
18313 4:52:02 Lanot Monique (FRA) F47 (+)
18354 4:52:25 Bavoil Daniel (FRA) M43 (+)
18395 4:52:48 Bombereau Guy (FRA) M45 (+)
18400 4:52:53 Maccario Pierre (FRA) M30 (+)
18428 4:53:10 Clerc Agnes (FRA) F32 (+)
18433 4:53:12 Grau Claude (FRA) M35 (+)
18456 4:53:30 Trouboul Jacques (FRA) M39 (+)
18467 4:53:36 Piffault Martine (FRA) F44 (+)
18473 4:53:39 Jonsson Rolf (FRA) M43 (+)
18508 4:54:00 Desmoulieres Jean-yves (FRA) M43 (+)
18509 4:54:00 Blaublomme Francis (FRA) M46 (+)
18563 4:54:37 Prades Fabrice (FRA) M21 (+)
18571 4:54:41 Gazano Virginie (FRA) F39 (+)
18572 4:54:42 Santos Jose (FRA) M20 (+)
18580 4:54:45 Laveau Francis (FRA) M36 (+)
18590 4:54:48 Saliceti Daniel (FRA) M46 (+)
18597 4:54:52 Coomans Daniel (FRA) M42 (+)
18601 4:54:55 Guerin Catherine (FRA) F19 (+)
18605 4:54:58 Blondel Alain (FRA) M44 (+)
18607 4:54:58 Pouchet Lucien (FRA) M53 (+)
18615 4:55:02 Touchot Bernard (FRA) M46 (+)
18617 4:55:02 Breton Thierry (FRA) M24 (+)
18621 4:55:03 Vachie Nadine (FRA) F27 (+)
18634 4:55:12 Bidet Claude (FRA) M40 (+)
18644 4:55:20 Bidot Yves (FRA) M42 (+)
18660 4:55:28 Schreiber Marcel (FRA) M35 (+)
18661 4:55:29 Maric Constantin (FRA) M48 (+)
18662 4:55:31 Jamalian Serge (FRA) M43 (+)
18691 4:55:40 Vives Marcel (FRA) M40 (+)
18694 4:55:42 Moggi Jean (FRA) M49 (+)
18698 4:55:44 Lambert Pierre (FRA) M41 (+)
18722 4:55:57 Malka Gilbert (FRA) M46 (+)
18759 4:56:16 Solal Jean-jacques (FRA) M40 (+)
18772 4:56:21 Pipolo A (FRA) M20 (+)
18783 4:56:29 Feuillant Jerome (FRA) M28 (+)
18797 4:56:35 Vaudey Gerald (FRA) M48 (+)
18846 4:57:00 Duvalet Danielle (FRA) F39 (+)
18847 4:57:00 Damaret Joelle (FRA) F37 (+)
18855 4:57:03 Guiot Alain (FRA) M49 (+)
18858 4:57:04 Cattelain Daniel (FRA) M40 (+)
18876 4:57:11 Cunha Edward (FRA) M51 (+)
18915 4:57:29 Peel Henri (FRA) M65 (+)
18937 4:57:39 Audouin Jacques (FRA) M32 (+)
18948 4:57:41 Perez Francis (FRA) M39 (+)
18950 4:57:42 Peyronnet Gerard (FRA) M53 (+)
18968 4:57:55 Maquet Emmanuel (FRA) M22 (+)
18969 4:57:55 Baron Aaron (FRA) M41 (+)
18970 4:57:57 Rebellet Pierre (FRA) M44 (+)
18974 4:57:58 Lehucher Françoise (FRA) F48 (+)
18979 4:57:59 Gilles Briant (FRA) M48 (+)
19016 4:58:22 Gros Michele (FRA) F30 (+)
19031 4:58:30 Vallejo Paul Jean (FRA) M61 (+)
19053 4:58:44 Perrier Michel (FRA) M33 (+)
19065 4:58:50 Gochtoutt François (FRA) M35 (+)
19111 4:59:05 Brain Louisette (FRA) F50 (+)
19144 4:59:21 Andrianony Sylvain (FRA) M44 (+)
19159 4:59:26 Robert Eric (FRA) M22 (+)
19201 4:59:46 Maze Claudine (FRA) F36 (+)
19214 4:59:52 Bouchard Muriel (FRA) F23 (+)
19217 4:59:56 Periphanos Michel (FRA) M57 (+)
19230 5:00:05 Belmont Francine (FRA) F35 (+)
19249 5:00:19 Bourrouillou Marc (FRA) M28 (+)
19250 5:00:19 Bourrouillou Georges (FRA) M41 (+)
19252 5:00:19 Latour Francis (FRA) M36 (+)
19253 5:00:19 Croutier Eric (FRA) M36 (+)
19254 5:00:20 Gournet Alain (FRA) M35 (+)
19278 5:00:34 Coulon Reynold (FRA) M20 (+)
19311 5:00:58 Bertrand Gilles (FRA) M58 (+)
19333 5:01:22 Mignon Charles (FRA) M66 (+)
19342 5:01:31 Quicray Jacques (FRA) M67 (+)
19353 5:01:36 Borit Jean Claude (FRA) M25 (+)
19397 5:02:20 Parant Anjues (FRA) M33 (+)
19407 5:02:32 Guirand Patrice (FRA) M41 (+)
19437 5:02:54 Courtault Albert (FRA) M49 (+)
19441 5:02:57 Thomas Jean Pierre (FRA) M43 (+)
19493 5:03:33 Battentier Guy (FRA) M40 (+)
19503 5:03:41 Dalchet Jean Luc (FRA) M39 (+)
19530 5:04:07 Piana Alain (FRA) M43 (+)
19542 5:04:22 Brision Denis (FRA) M37 (+)
19543 5:04:23 Bouchard Kitty (FRA) F47 (+)
19558 5:04:39 Laurent Jean-louis (FRA) M39 (+)
19585 5:05:07 Jaquemin Pierre (FRA) M53 (+)
19587 5:05:08 Jourdan Louis (FRA) M37 (+)
19588 5:05:09 Jan Alain Camille (FRA) M40 (+)
19589 5:05:09 Touren Jacques (FRA) M45 (+)
19607 5:05:26 Leblanc Jean-marie (FRA) M53 (+)
19612 5:05:30 Liberale Chantal (FRA) F41 (+)
19615 5:05:32 Marchat Françoise (FRA) F40 (+)
19628 5:05:44 Heurtevent Christian (FRA) M28 (+)
19638 5:05:56 Brule Dubois Françoise (FRA) F65 (+)
19639 5:05:57 Jacquot Pierre (FRA) M36 (+)
19644 5:05:59 Saul Jean Philippe (FRA) M30 (+)
19645 5:05:59 Cusson Michel (FRA) M25 (+)
19654 5:06:04 Guyot Martine (FRA) F30 (+)
19676 5:06:23 Hernandez Chantal (FRA) F42 (+)
19740 5:07:32 Liberale Michel (FRA) M45 (+)
19749 5:07:39 Premont Annie (FRA) F35 (+)
19765 5:07:51 Gastaud Julien (FRA) M47 (+)
19768 5:07:52 Vindiolet Michel (FRA) M54 (+)
19785 5:08:13 Hun-dunj-le Robert (FRA) F41 (+)
19788 5:08:19 Brule Jean (FRA) M64 (+)
19790 5:08:22 Casier Bernard (FRA) M35 (+)
19796 5:08:27 Coigne Catherine (FRA) F33 (+)
19807 5:08:36 Filliat Christine (FRA) F28 (+)
19808 5:08:36 Treussier Michel (FRA) M39 (+)
19813 5:08:46 Dasilva Pereira Jose (FRA) M18 (+)
19816 5:08:47 Stern Alain (FRA) M33 (+)
19842 5:09:17 Gerson Claudine (FRA) F51 (+)
19915 5:10:31 Bourgeois Olivier (FRA) M25 (+)
19989 5:11:38 Bengheyati Hafida (FRA) F20 (+)
19990 5:11:38 Gormi Hadj (FRA) M18 (+)
19993 5:11:39 Gounot Pierre (FRA) M58 (+)
20001 5:11:52 Monge Patrick (FRA) M37 (+)
20005 5:11:55 Gouaux Martine (FRA) F41 (+)
20008 5:11:58 Lemercier Lisa (FRA) F34 (+)
20048 5:12:36 Burlaud Stephane (FRA) M19